Time,TemperatureF,DewpointF,PressureIn,WindDirection,WindDirectionDegrees,WindSpeedMPH,WindSpeedGustMPH,Humidity,HourlyPrecipIn,Conditions,Clouds,dailyrainin,SoftwareType,DateUTC
2014-07-23 00:00:00,72.3,72.3,30.13,North,0,0.0,0.0,100,0.00,,,1.03,WUHU216WMR968SP,2014-07-23 04:00:00,
2014-07-23 00:01:00,72.3,72.3,30.13,North,0,0.0,0.0,100,0.00,,,0.00,WUHU216WMR968SP,2014-07-23 04:01:00,
2014-07-23 00:02:00,72.3,72.3,30.13,North,0,0.0,0.0,100,0.00,,,0.00,WUHU216WMR968SP,2014-07-23 04:02:00,
2014-07-23 00:06:00,72.3,72.3,30.13,North,0,0.0,0.0,100,0.00,,,0.00,WUHU216WMR968SP,2014-07-23 04:06:00,
2014-07-23 00:07:00,72.3,72.3,30.13,North,0,0.0,0.0,100,0.00,,,0.00,WUHU216WMR968SP,2014-07-23 04:07:00,
2014-07-23 00:11:00,72.3,72.3,30.13,North,0,0.0,0.0,100,0.00,,,0.00,WUHU216WMR968SP,2014-07-23 04:11:00,
2014-07-23 00:12:00,72.1,72.1,30.13,North,0,0.0,0.0,100,0.00,,,0.00,WUHU216WMR968SP,2014-07-23 04:12:00,
2014-07-23 00:16:00,72.1,72.1,30.13,North,0,0.0,0.0,100,0.00,,,0.00,WUHU216WMR968SP,2014-07-23 04:16:00,
2014-07-23 00:17:00,72.1,72.1,30.13,North,0,0.0,0.0,100,0.00,,,0.00,WUHU216WMR968SP,2014-07-23 04:17:00,
2014-07-23 00:18:00,72.1,72.1,30.13,North,0,0.0,0.0,100,0.00,,,0.00,WUHU216WMR968SP,2014-07-23 04:18:00,
2014-07-23 00:21:00,72.0,72.0,30.13,North,0,0.0,0.0,100,0.00,,,0.00,WUHU216WMR968SP,2014-07-23 04:21:00,
2014-07-23 00:22:00,72.0,72.0,30.13,North,0,0.0,0.0,100,0.00,,,0.00,WUHU216WMR968SP,2014-07-23 04:22:00,
2014-07-23 00:23:00,72.0,72.0,30.13,North,0,0.0,0.0,100,0.00,,,0.00,WUHU216WMR968SP,2014-07-23 04:23:00,
2014-07-23 00:26:00,72.0,72.0,30.13,North,0,0.0,0.0,100,0.00,,,0.00,WUHU216WMR968SP,2014-07-23 04:26:00,
2014-07-23 00:29:00,72.0,72.0,30.13,North,0,0.0,0.0,100,0.00,,,0.00,WUHU216WMR968SP,2014-07-23 04:29:00,
2014-07-23 00:31:00,72.0,72.0,30.13,North,0,0.0,0.0,100,0.00,,,0.00,WUHU216WMR968SP,2014-07-23 04:31:00,
2014-07-23 00:32:00,72.0,72.0,30.13,North,0,0.0,0.0,100,0.00,,,0.00,WUHU216WMR968SP,2014-07-23 04:32:00,
2014-07-23 00:36:00,72.0,72.0,30.13,North,0,0.0,0.0,100,0.00,,,0.00,WUHU216WMR968SP,2014-07-23 04:36:00,
2014-07-23 00:37:00,72.0,72.0,30.13,North,0,0.0,0.0,100,0.00,,,0.00,WUHU216WMR968SP,2014-07-23 04:37:00,
2014-07-23 00:41:00,71.8,71.8,30.13,North,0,0.0,0.0,100,0.00,,,0.00,WUHU216WMR968SP,2014-07-23 04:41:00,
2014-07-23 00:42:00,71.8,71.8,30.13,North,0,0.0,0.0,100,0.00,,,0.00,WUHU216WMR968SP,2014-07-23 04:42:00,
2014-07-23 00:43:00,72.0,72.0,30.13,North,0,0.0,0.0,100,0.00,,,0.00,WUHU216WMR968SP,2014-07-23 04:43:00,
2014-07-23 00:46:00,72.0,72.0,30.13,North,0,0.0,0.0,100,0.00,,,0.00,WUHU216WMR968SP,2014-07-23 04:46:00,
2014-07-23 00:47:00,72.0,72.0,30.13,North,0,0.0,0.0,100,0.00,,,0.00,WUHU216WMR968SP,2014-07-23 04:47:00,
2014-07-23 00:48:00,71.8,71.8,30.13,North,0,0.0,0.0,100,0.00,,,0.00,WUHU216WMR968SP,2014-07-23 04:48:00,
2014-07-23 00:52:00,71.8,71.8,30.13,North,0,0.0,0.0,100,0.00,,,0.00,WUHU216WMR968SP,2014-07-23 04:52:00,
2014-07-23 00:53:00,71.8,71.8,30.13,North,0,0.0,0.0,100,0.00,,,0.00,WUHU216WMR968SP,2014-07-23 04:53:00,
2014-07-23 00:57:00,71.8,71.8,30.13,North,0,0.0,0.0,100,0.00,,,0.00,WUHU216WMR968SP,2014-07-23 04:57:00,
2014-07-23 00:58:00,71.8,71.8,30.13,North,0,0.0,0.0,100,0.00,,,0.00,WUHU216WMR968SP,2014-07-23 04:58:00,
2014-07-23 01:02:00,71.6,71.6,30.13,North,0,0.0,0.0,100,0.00,,,0.00,WUHU216WMR968SP,2014-07-23 05:02:00,
2014-07-23 01:03:00,71.6,71.6,30.13,North,0,0.0,0.0,100,0.00,,,0.00,WUHU216WMR968SP,2014-07-23 05:03:00,
2014-07-23 01:04:00,71.6,71.6,30.13,North,0,0.0,0.0,100,0.00,,,0.00,WUHU216WMR968SP,2014-07-23 05:04:00,
2014-07-23 01:05:00,71.6,71.6,30.13,North,0,0.0,0.0,100,0.00,,,0.00,WUHU216WMR968SP,2014-07-23 05:05:00,
2014-07-23 01:07:00,71.6,71.6,30.13,North,0,0.0,0.0,100,0.00,,,0.00,WUHU216WMR968SP,2014-07-23 05:07:00,
2014-07-23 01:08:00,71.6,71.6,30.13,North,0,0.0,0.0,100,0.00,,,0.00,WUHU216WMR968SP,2014-07-23 05:08:00,
2014-07-23 01:09:00,71.6,71.6,30.13,North,0,0.0,0.0,100,0.00,,,0.00,WUHU216WMR968SP,2014-07-23 05:09:00,
2014-07-23 01:10:00,71.6,71.6,30.13,North,0,0.0,0.0,100,0.00,,,0.00,WUHU216WMR968SP,2014-07-23 05:10:00,
2014-07-23 01:12:00,71.6,71.6,30.10,North,0,0.0,0.0,100,0.00,,,0.00,WUHU216WMR968SP,2014-07-23 05:12:00,
2014-07-23 01:13:00,71.6,71.6,30.10,North,0,0.0,0.0,100,0.00,,,0.00,WUHU216WMR968SP,2014-07-23 05:13:00,
2014-07-23 01:15:00,71.6,71.6,30.10,North,0,0.0,0.0,100,0.00,,,0.00,WUHU216WMR968SP,2014-07-23 05:15:00,
2014-07-23 01:18:00,71.6,71.6,30.10,North,0,0.0,0.0,100,0.00,,,0.00,WUHU216WMR968SP,2014-07-23 05:18:00,
2014-07-23 01:22:00,71.4,71.4,30.10,North,0,0.0,0.0,100,0.00,,,0.00,WUHU216WMR968SP,2014-07-23 05:22:00,
2014-07-23 01:23:00,71.4,71.4,30.10,North,0,0.0,0.0,100,0.00,,,0.00,WUHU216WMR968SP,2014-07-23 05:23:00,
2014-07-23 01:27:00,71.4,71.4,30.10,North,0,0.0,0.0,100,0.00,,,0.00,WUHU216WMR968SP,2014-07-23 05:27:00,
2014-07-23 01:28:00,71.4,71.4,30.10,North,0,0.0,0.0,100,0.00,,,0.00,WUHU216WMR968SP,2014-07-23 05:28:00,
2014-07-23 01:29:00,71.2,71.2,30.10,North,0,0.0,0.0,100,0.00,,,0.00,WUHU216WMR968SP,2014-07-23 05:29:00,
2014-07-23 01:32:00,71.2,71.2,30.10,North,0,0.0,0.0,100,0.00,,,0.00,WUHU216WMR968SP,2014-07-23 05:32:00,
2014-07-23 01:33:00,71.2,71.2,30.10,North,0,0.0,0.0,100,0.00,,,0.00,WUHU216WMR968SP,2014-07-23 05:33:00,
2014-07-23 01:34:00,71.2,71.2,30.10,North,0,0.0,0.0,100,0.00,,,0.00,WUHU216WMR968SP,2014-07-23 05:34:00,
2014-07-23 01:38:00,71.2,71.2,30.10,North,0,0.0,0.0,100,0.00,,,0.00,WUHU216WMR968SP,2014-07-23 05:38:00,
2014-07-23 01:39:00,71.2,71.2,30.10,North,0,0.0,0.0,100,0.00,,,0.00,WUHU216WMR968SP,2014-07-23 05:39:00,
2014-07-23 01:43:00,71.1,71.1,30.10,North,0,0.0,0.0,100,0.00,,,0.00,WUHU216WMR968SP,2014-07-23 05:43:00,
2014-07-23 01:44:00,71.1,71.1,30.10,North,0,0.0,0.0,100,0.00,,,0.00,WUHU216WMR968SP,2014-07-23 05:44:00,
2014-07-23 01:48:00,71.1,71.1,30.10,North,0,0.0,0.0,100,0.00,,,0.00,WUHU216WMR968SP,2014-07-23 05:48:00,
2014-07-23 01:49:00,71.1,71.1,30.10,North,0,0.0,0.0,100,0.00,,,0.00,WUHU216WMR968SP,2014-07-23 05:49:00,
2014-07-23 01:50:00,71.1,71.1,30.10,North,0,0.0,0.0,100,0.00,,,0.00,WUHU216WMR968SP,2014-07-23 05:50:00,
2014-07-23 01:54:00,71.1,71.1,30.10,North,0,0.0,0.0,100,0.00,,,0.00,WUHU216WMR968SP,2014-07-23 05:54:00,
2014-07-23 01:55:00,70.9,70.9,30.10,North,0,0.0,0.0,100,0.00,,,0.00,WUHU216WMR968SP,2014-07-23 05:55:00,
2014-07-23 01:59:00,70.9,70.9,30.07,North,0,0.0,0.0,100,0.00,,,0.00,WUHU216WMR968SP,2014-07-23 05:59:00,
2014-07-23 02:00:00,70.9,70.9,30.07,North,0,0.0,0.0,100,0.00,,,0.00,WUHU216WMR968SP,2014-07-23 06:00:00,
2014-07-23 02:01:00,70.9,70.9,30.07,North,0,0.0,0.0,100,0.00,,,0.00,WUHU216WMR968SP,2014-07-23 06:01:00,
2014-07-23 02:05:00,70.9,70.9,30.07,North,0,0.0,0.0,100,0.00,,,0.00,WUHU216WMR968SP,2014-07-23 06:05:00,
2014-07-23 02:07:00,70.9,70.9,30.07,North,0,0.0,0.0,100,0.00,,,0.00,WUHU216WMR968SP,2014-07-23 06:07:00,
2014-07-23 02:10:00,70.9,70.9,30.07,North,0,0.0,0.0,100,0.00,,,0.00,WUHU216WMR968SP,2014-07-23 06:10:00,
2014-07-23 02:11:00,70.9,70.9,30.07,North,0,0.0,0.0,100,0.00,,,0.00,WUHU216WMR968SP,2014-07-23 06:11:00,
2014-07-23 02:12:00,70.7,70.7,30.07,North,0,0.0,0.0,100,0.00,,,0.00,WUHU216WMR968SP,2014-07-23 06:12:00,
2014-07-23 02:15:00,70.7,70.7,30.10,North,0,0.0,0.0,100,0.00,,,0.00,WUHU216WMR968SP,2014-07-23 06:15:00,
2014-07-23 02:16:00,70.7,70.7,30.10,North,0,0.0,0.0,100,0.00,,,0.00,WUHU216WMR968SP,2014-07-23 06:16:00,
2014-07-23 02:17:00,70.7,70.7,30.10,North,0,0.0,0.0,100,0.00,,,0.00,WUHU216WMR968SP,2014-07-23 06:17:00,
2014-07-23 02:20:00,70.7,70.7,30.10,North,0,0.0,0.0,100,0.00,,,0.00,WUHU216WMR968SP,2014-07-23 06:20:00,
2014-07-23 02:21:00,70.7,70.7,30.10,North,0,0.0,0.0,100,0.00,,,0.00,WUHU216WMR968SP,2014-07-23 06:21:00,
2014-07-23 02:23:00,70.5,70.5,30.10,North,0,0.0,0.0,100,0.00,,,0.00,WUHU216WMR968SP,2014-07-23 06:23:00,
2014-07-23 02:25:00,70.5,70.5,30.10,North,0,0.0,0.0,100,0.00,,,0.00,WUHU216WMR968SP,2014-07-23 06:25:00,
2014-07-23 02:26:00,70.5,70.5,30.10,North,0,0.0,0.0,100,0.00,,,0.00,WUHU216WMR968SP,2014-07-23 06:26:00,
2014-07-23 02:28:00,70.5,70.5,30.10,North,0,0.0,0.0,100,0.00,,,0.00,WUHU216WMR968SP,2014-07-23 06:28:00,
2014-07-23 02:31:00,70.5,70.5,30.10,North,0,0.0,0.0,100,0.00,,,0.00,WUHU216WMR968SP,2014-07-23 06:31:00,
2014-07-23 02:33:00,70.3,70.3,30.10,North,0,0.0,0.0,100,0.00,,,0.00,WUHU216WMR968SP,2014-07-23 06:33:00,
2014-07-23 02:36:00,70.3,70.3,30.10,North,0,0.0,0.0,100,0.00,,,0.00,WUHU216WMR968SP,2014-07-23 06:36:00,
2014-07-23 02:38:00,70.3,70.3,30.10,North,0,0.0,0.0,100,0.00,,,0.00,WUHU216WMR968SP,2014-07-23 06:38:00,
2014-07-23 02:41:00,70.3,70.3,30.10,North,0,0.0,0.0,100,0.00,,,0.00,WUHU216WMR968SP,2014-07-23 06:41:00,
2014-07-23 02:42:00,70.3,70.3,30.10,North,0,0.0,0.0,100,0.00,,,0.00,WUHU216WMR968SP,2014-07-23 06:42:00,
2014-07-23 02:43:00,70.3,70.3,30.07,North,0,0.0,0.0,100,0.00,,,0.00,WUHU216WMR968SP,2014-07-23 06:43:00,
2014-07-23 02:46:00,70.3,70.3,30.07,North,0,0.0,0.0,100,0.00,,,0.00,WUHU216WMR968SP,2014-07-23 06:46:00,
2014-07-23 02:47:00,70.3,70.3,30.07,North,0,0.0,0.0,100,0.00,,,0.00,WUHU216WMR968SP,2014-07-23 06:47:00,
2014-07-23 02:48:00,70.3,70.3,30.07,North,0,0.0,0.0,100,0.00,,,0.00,WUHU216WMR968SP,2014-07-23 06:48:00,
2014-07-23 02:51:00,70.3,70.3,30.07,North,0,0.0,0.0,100,0.00,,,0.00,WUHU216WMR968SP,2014-07-23 06:51:00,
2014-07-23 02:52:00,70.3,70.3,30.07,North,0,0.0,0.0,100,0.00,,,0.00,WUHU216WMR968SP,2014-07-23 06:52:00,
2014-07-23 02:54:00,70.3,70.3,30.07,North,0,0.0,0.0,100,0.00,,,0.00,WUHU216WMR968SP,2014-07-23 06:54:00,
2014-07-23 02:57:00,70.2,70.2,30.07,North,0,0.0,0.0,100,0.00,,,0.00,WUHU216WMR968SP,2014-07-23 06:57:00,
2014-07-23 02:58:00,70.2,70.2,30.07,North,0,0.0,0.0,100,0.00,,,0.00,WUHU216WMR968SP,2014-07-23 06:58:00,
2014-07-23 02:59:00,70.2,70.2,30.07,North,0,0.0,0.0,100,0.00,,,0.00,WUHU216WMR968SP,2014-07-23 06:59:00,
2014-07-23 03:02:00,70.2,70.2,30.07,North,0,0.0,0.0,100,0.00,,,0.00,WUHU216WMR968SP,2014-07-23 07:02:00,
2014-07-23 03:03:00,70.2,70.2,30.07,North,0,0.0,0.0,100,0.00,,,0.00,WUHU216WMR968SP,2014-07-23 07:03:00,
2014-07-23 03:04:00,70.2,70.2,30.07,North,0,0.0,0.0,100,0.00,,,0.00,WUHU216WMR968SP,2014-07-23 07:04:00,
2014-07-23 03:07:00,70.0,70.0,30.07,North,0,0.0,0.0,100,0.00,,,0.00,WUHU216WMR968SP,2014-07-23 07:07:00,
2014-07-23 03:08:00,70.0,70.0,30.07,North,0,0.0,0.0,100,0.00,,,0.00,WUHU216WMR968SP,2014-07-23 07:08:00,
2014-07-23 03:09:00,70.0,70.0,30.07,North,0,0.0,0.0,100,0.00,,,0.00,WUHU216WMR968SP,2014-07-23 07:09:00,
2014-07-23 03:12:00,70.0,70.0,30.07,North,0,0.0,0.0,100,0.00,,,0.00,WUHU216WMR968SP,2014-07-23 07:12:00,
2014-07-23 03:13:00,70.0,70.0,30.07,North,0,0.0,0.0,100,0.00,,,0.00,WUHU216WMR968SP,2014-07-23 07:13:00,
2014-07-23 03:15:00,70.0,70.0,30.07,North,0,0.0,0.0,100,0.00,,,0.00,WUHU216WMR968SP,2014-07-23 07:15:00,
2014-07-23 03:17:00,70.0,70.0,30.07,North,0,0.0,0.0,100,0.00,,,0.00,WUHU216WMR968SP,2014-07-23 07:17:00,
2014-07-23 03:18:00,70.0,70.0,30.07,North,0,0.0,0.0,100,0.00,,,0.00,WUHU216WMR968SP,2014-07-23 07:18:00,
2014-07-23 03:20:00,70.0,70.0,30.07,North,0,0.0,0.0,100,0.00,,,0.00,WUHU216WMR968SP,2014-07-23 07:20:00,
2014-07-23 03:22:00,69.8,69.8,30.07,North,0,0.0,0.0,100,0.00,,,0.00,WUHU216WMR968SP,2014-07-23 07:22:00,
2014-07-23 03:23:00,69.8,69.8,30.07,North,0,0.0,0.0,100,0.00,,,0.00,WUHU216WMR968SP,2014-07-23 07:23:00,
2014-07-23 03:26:00,69.8,69.8,30.07,North,0,0.0,0.0,100,0.00,,,0.00,WUHU216WMR968SP,2014-07-23 07:26:00,
2014-07-23 03:27:00,69.8,69.8,30.07,North,0,0.0,0.0,100,0.00,,,0.00,WUHU216WMR968SP,2014-07-23 07:27:00,
2014-07-23 03:28:00,69.8,69.8,30.07,North,0,0.0,0.0,100,0.00,,,0.00,WUHU216WMR968SP,2014-07-23 07:28:00,
2014-07-23 03:29:00,69.8,69.8,30.07,North,0,0.0,0.0,100,0.00,,,0.00,WUHU216WMR968SP,2014-07-23 07:29:00,
2014-07-23 03:31:00,69.8,69.8,30.07,North,0,0.0,0.0,100,0.00,,,0.00,WUHU216WMR968SP,2014-07-23 07:31:00,
2014-07-23 03:32:00,69.8,69.8,30.07,North,0,0.0,0.0,100,0.00,,,0.00,WUHU216WMR968SP,2014-07-23 07:32:00,
2014-07-23 03:33:00,69.8,69.8,30.07,North,0,0.0,0.0,100,0.00,,,0.00,WUHU216WMR968SP,2014-07-23 07:33:00,
2014-07-23 03:34:00,69.8,69.8,30.07,North,0,0.0,0.0,100,0.00,,,0.00,WUHU216WMR968SP,2014-07-23 07:34:00,
2014-07-23 03:36:00,69.8,69.8,30.07,North,0,0.0,0.0,100,0.00,,,0.00,WUHU216WMR968SP,2014-07-23 07:36:00,
2014-07-23 03:38:00,69.8,69.8,30.07,North,0,0.0,0.0,100,0.00,,,0.00,WUHU216WMR968SP,2014-07-23 07:38:00,
2014-07-23 03:39:00,69.8,69.8,30.07,North,0,0.0,0.0,100,0.00,,,0.00,WUHU216WMR968SP,2014-07-23 07:39:00,
2014-07-23 03:41:00,69.8,69.8,30.07,North,0,0.0,0.0,100,0.00,,,0.00,WUHU216WMR968SP,2014-07-23 07:41:00,
2014-07-23 03:43:00,69.8,69.8,30.07,North,0,0.0,0.0,100,0.00,,,0.00,WUHU216WMR968SP,2014-07-23 07:43:00,
2014-07-23 03:44:00,69.8,69.8,30.07,North,0,0.0,0.0,100,0.00,,,0.00,WUHU216WMR968SP,2014-07-23 07:44:00,
2014-07-23 03:45:00,69.8,69.8,30.07,North,0,0.0,0.0,100,0.00,,,0.00,WUHU216WMR968SP,2014-07-23 07:45:00,
2014-07-23 03:47:00,69.8,69.8,30.07,North,0,0.0,0.0,100,0.00,,,0.00,WUHU216WMR968SP,2014-07-23 07:47:00,
2014-07-23 03:48:00,69.8,69.8,30.07,North,0,0.0,0.0,100,0.00,,,0.00,WUHU216WMR968SP,2014-07-23 07:48:00,
2014-07-23 03:49:00,69.8,69.8,30.07,North,0,0.0,0.0,100,0.00,,,0.00,WUHU216WMR968SP,2014-07-23 07:49:00,
2014-07-23 03:50:00,69.8,69.8,30.07,North,0,0.0,0.0,100,0.00,,,0.00,WUHU216WMR968SP,2014-07-23 07:50:00,
2014-07-23 03:52:00,69.6,69.6,30.07,North,0,0.0,0.0,100,0.00,,,0.00,WUHU216WMR968SP,2014-07-23 07:52:00,
2014-07-23 03:53:00,69.6,69.6,30.07,North,0,0.0,0.0,100,0.00,,,0.00,WUHU216WMR968SP,2014-07-23 07:53:00,
2014-07-23 03:54:00,69.6,69.6,30.07,North,0,0.0,0.0,100,0.00,,,0.00,WUHU216WMR968SP,2014-07-23 07:54:00,
2014-07-23 03:55:00,69.6,69.6,30.07,North,0,0.0,0.0,100,0.00,,,0.00,WUHU216WMR968SP,2014-07-23 07:55:00,
2014-07-23 03:57:00,69.6,69.6,30.07,North,0,0.0,0.0,100,0.00,,,0.00,WUHU216WMR968SP,2014-07-23 07:57:00,
2014-07-23 03:58:00,69.6,69.6,30.07,North,0,0.0,0.0,100,0.00,,,0.00,WUHU216WMR968SP,2014-07-23 07:58:00,
2014-07-23 03:59:00,69.6,69.6,30.07,North,0,0.0,0.0,100,0.00,,,0.00,WUHU216WMR968SP,2014-07-23 07:59:00,
2014-07-23 04:00:00,69.6,69.6,30.07,North,0,0.0,0.0,100,0.00,,,0.00,WUHU216WMR968SP,2014-07-23 08:00:00,
2014-07-23 04:01:00,69.6,69.6,30.07,North,0,0.0,0.0,100,0.00,,,0.00,WUHU216WMR968SP,2014-07-23 08:01:00,
2014-07-23 04:02:00,69.6,69.6,30.07,North,0,0.0,0.0,100,0.00,,,0.00,WUHU216WMR968SP,2014-07-23 08:02:00,
2014-07-23 04:03:00,69.6,69.6,30.07,North,0,0.0,0.0,100,0.00,,,0.00,WUHU216WMR968SP,2014-07-23 08:03:00,
2014-07-23 04:05:00,69.6,69.6,30.07,North,0,0.0,0.0,100,0.00,,,0.00,WUHU216WMR968SP,2014-07-23 08:05:00,
2014-07-23 04:06:00,69.6,69.6,30.07,North,0,0.0,0.0,100,0.00,,,0.00,WUHU216WMR968SP,2014-07-23 08:06:00,
2014-07-23 04:08:00,69.6,69.6,30.07,North,0,0.0,0.0,100,0.00,,,0.00,WUHU216WMR968SP,2014-07-23 08:08:00,
2014-07-23 04:10:00,69.6,69.6,30.07,North,0,0.0,0.0,100,0.00,,,0.00,WUHU216WMR968SP,2014-07-23 08:10:00,
2014-07-23 04:11:00,69.6,69.6,30.07,North,0,0.0,0.0,100,0.00,,,0.00,WUHU216WMR968SP,2014-07-23 08:11:00,
2014-07-23 04:13:00,69.6,69.6,30.07,North,0,0.0,0.0,100,0.00,,,0.00,WUHU216WMR968SP,2014-07-23 08:13:00,
2014-07-23 04:14:00,69.6,69.6,30.07,North,0,0.0,0.0,100,0.00,,,0.00,WUHU216WMR968SP,2014-07-23 08:14:00,
2014-07-23 04:15:00,69.6,69.6,30.07,North,0,0.0,0.0,100,0.00,,,0.00,WUHU216WMR968SP,2014-07-23 08:15:00,
2014-07-23 04:16:00,69.6,69.6,30.07,North,0,0.0,0.0,100,0.00,,,0.00,WUHU216WMR968SP,2014-07-23 08:16:00,
2014-07-23 04:19:00,69.6,69.6,30.07,North,0,0.0,0.0,100,0.00,,,0.00,WUHU216WMR968SP,2014-07-23 08:19:00,
2014-07-23 04:21:00,69.6,69.6,30.07,North,0,0.0,0.0,100,0.00,,,0.00,WUHU216WMR968SP,2014-07-23 08:21:00,
2014-07-23 04:22:00,69.6,69.6,30.07,North,0,0.0,0.0,100,0.00,,,0.00,WUHU216WMR968SP,2014-07-23 08:22:00,
2014-07-23 04:24:00,69.4,69.4,30.07,North,0,0.0,0.0,100,0.00,,,0.00,WUHU216WMR968SP,2014-07-23 08:24:00,
2014-07-23 04:26:00,69.4,69.4,30.07,North,0,0.0,0.0,100,0.00,,,0.00,WUHU216WMR968SP,2014-07-23 08:26:00,
2014-07-23 04:27:00,69.4,69.4,30.07,North,0,0.0,0.0,100,0.00,,,0.00,WUHU216WMR968SP,2014-07-23 08:27:00,
2014-07-23 04:29:00,69.4,69.4,30.07,North,0,0.0,0.0,100,0.00,,,0.00,WUHU216WMR968SP,2014-07-23 08:29:00,
2014-07-23 04:30:00,69.4,69.4,30.07,North,0,0.0,0.0,100,0.00,,,0.00,WUHU216WMR968SP,2014-07-23 08:30:00,
2014-07-23 04:31:00,69.4,69.4,30.07,North,0,0.0,0.0,100,0.00,,,0.00,WUHU216WMR968SP,2014-07-23 08:31:00,
2014-07-23 04:32:00,69.4,69.4,30.07,North,0,0.0,0.0,100,0.00,,,0.00,WUHU216WMR968SP,2014-07-23 08:32:00,
2014-07-23 04:35:00,69.4,69.4,30.07,North,0,0.0,0.0,100,0.00,,,0.00,WUHU216WMR968SP,2014-07-23 08:35:00,
2014-07-23 04:36:00,69.3,69.3,30.07,North,0,0.0,0.0,100,0.00,,,0.00,WUHU216WMR968SP,2014-07-23 08:36:00,
2014-07-23 04:37:00,69.3,69.3,30.07,North,0,0.0,0.0,100,0.00,,,0.00,WUHU216WMR968SP,2014-07-23 08:37:00,
2014-07-23 04:40:00,69.3,69.3,30.07,North,0,0.0,0.0,100,0.00,,,0.00,WUHU216WMR968SP,2014-07-23 08:40:00,
2014-07-23 04:41:00,69.3,69.3,30.07,North,0,0.0,0.0,100,0.00,,,0.00,WUHU216WMR968SP,2014-07-23 08:41:00,
2014-07-23 04:42:00,69.3,69.3,30.07,North,0,0.0,0.0,100,0.00,,,0.00,WUHU216WMR968SP,2014-07-23 08:42:00,
2014-07-23 04:43:00,69.1,69.1,30.07,North,0,0.0,0.0,100,0.00,,,0.00,WUHU216WMR968SP,2014-07-23 08:43:00,
2014-07-23 04:45:00,69.1,69.1,30.07,North,0,0.0,0.0,100,0.00,,,0.00,WUHU216WMR968SP,2014-07-23 08:45:00,
2014-07-23 04:46:00,69.1,69.1,30.07,North,0,0.0,0.0,100,0.00,,,0.00,WUHU216WMR968SP,2014-07-23 08:46:00,
2014-07-23 04:47:00,69.1,69.1,30.07,North,0,0.0,0.0,100,0.00,,,0.00,WUHU216WMR968SP,2014-07-23 08:47:00,
2014-07-23 04:48:00,69.1,69.1,30.07,North,0,0.0,0.0,100,0.00,,,0.00,WUHU216WMR968SP,2014-07-23 08:48:00,
2014-07-23 04:51:00,69.1,69.1,30.07,North,0,0.0,0.0,100,0.00,,,0.00,WUHU216WMR968SP,2014-07-23 08:51:00,
2014-07-23 04:52:00,69.1,69.1,30.07,North,0,0.0,0.0,100,0.00,,,0.00,WUHU216WMR968SP,2014-07-23 08:52:00,
2014-07-23 04:53:00,69.1,69.1,30.07,North,0,0.0,0.0,100,0.00,,,0.00,WUHU216WMR968SP,2014-07-23 08:53:00,
2014-07-23 04:56:00,68.9,68.9,30.07,North,0,0.0,0.0,100,0.00,,,0.00,WUHU216WMR968SP,2014-07-23 08:56:00,
2014-07-23 04:57:00,68.9,68.9,30.07,North,0,0.0,0.0,100,0.00,,,0.00,WUHU216WMR968SP,2014-07-23 08:57:00,
2014-07-23 04:58:00,68.9,68.9,30.07,North,0,0.0,0.0,100,0.00,,,0.00,WUHU216WMR968SP,2014-07-23 08:58:00,
2014-07-23 05:01:00,68.9,68.9,30.07,North,0,0.0,0.0,100,0.00,,,0.00,WUHU216WMR968SP,2014-07-23 09:01:00,
2014-07-23 05:02:00,68.9,68.9,30.07,North,0,0.0,0.0,100,0.00,,,0.00,WUHU216WMR968SP,2014-07-23 09:02:00,
2014-07-23 05:03:00,68.9,68.9,30.07,North,0,0.0,0.0,100,0.00,,,0.00,WUHU216WMR968SP,2014-07-23 09:03:00,
2014-07-23 05:07:00,68.9,68.9,30.07,North,0,0.0,0.0,100,0.00,,,0.00,WUHU216WMR968SP,2014-07-23 09:07:00,
2014-07-23 05:08:00,68.9,68.9,30.07,North,0,0.0,0.0,100,0.00,,,0.00,WUHU216WMR968SP,2014-07-23 09:08:00,
2014-07-23 05:09:00,68.9,68.9,30.07,North,0,0.0,0.0,100,0.00,,,0.00,WUHU216WMR968SP,2014-07-23 09:09:00,
2014-07-23 05:12:00,68.9,68.9,30.07,North,0,0.0,0.0,100,0.00,,,0.00,WUHU216WMR968SP,2014-07-23 09:12:00,
2014-07-23 05:13:00,68.9,68.9,30.07,North,0,0.0,0.0,100,0.00,,,0.00,WUHU216WMR968SP,2014-07-23 09:13:00,
2014-07-23 05:14:00,68.9,68.9,30.07,North,0,0.0,0.0,100,0.00,,,0.00,WUHU216WMR968SP,2014-07-23 09:14:00,
2014-07-23 05:15:00,68.9,68.9,30.07,North,0,0.0,0.0,100,0.00,,,0.00,WUHU216WMR968SP,2014-07-23 09:15:00,
2014-07-23 05:17:00,68.9,68.9,30.07,North,0,0.0,0.0,100,0.00,,,0.00,WUHU216WMR968SP,2014-07-23 09:17:00,
2014-07-23 05:18:00,68.9,68.9,30.07,North,0,0.0,0.0,100,0.00,,,0.00,WUHU216WMR968SP,2014-07-23 09:18:00,
2014-07-23 05:19:00,68.9,68.9,30.07,North,0,0.0,0.0,100,0.00,,,0.00,WUHU216WMR968SP,2014-07-23 09:19:00,
2014-07-23 05:20:00,68.9,68.9,30.07,North,0,0.0,0.0,100,0.00,,,0.00,WUHU216WMR968SP,2014-07-23 09:20:00,
2014-07-23 05:22:00,68.9,68.9,30.07,North,0,0.0,0.0,100,0.00,,,0.00,WUHU216WMR968SP,2014-07-23 09:22:00,
2014-07-23 05:23:00,68.9,68.9,30.07,North,0,0.0,0.0,100,0.00,,,0.00,WUHU216WMR968SP,2014-07-23 09:23:00,
2014-07-23 05:24:00,68.9,68.9,30.07,North,0,0.0,0.0,100,0.00,,,0.00,WUHU216WMR968SP,2014-07-23 09:24:00,
2014-07-23 05:25:00,68.9,68.9,30.07,North,0,0.0,0.0,100,0.00,,,0.00,WUHU216WMR968SP,2014-07-23 09:25:00,
2014-07-23 05:27:00,68.9,68.9,30.07,North,0,0.0,0.0,100,0.00,,,0.00,WUHU216WMR968SP,2014-07-23 09:27:00,
2014-07-23 05:28:00,68.9,68.9,30.07,North,0,0.0,0.0,100,0.00,,,0.00,WUHU216WMR968SP,2014-07-23 09:28:00,
2014-07-23 05:29:00,68.9,68.9,30.07,North,0,0.0,0.0,100,0.00,,,0.00,WUHU216WMR968SP,2014-07-23 09:29:00,
2014-07-23 05:30:00,68.9,68.9,30.07,North,0,0.0,0.0,100,0.00,,,0.00,WUHU216WMR968SP,2014-07-23 09:30:00,
2014-07-23 05:32:00,68.9,68.9,30.07,North,0,0.0,0.0,100,0.00,,,0.00,WUHU216WMR968SP,2014-07-23 09:32:00,
2014-07-23 05:33:00,68.9,68.9,30.07,North,0,0.0,0.0,100,0.00,,,0.00,WUHU216WMR968SP,2014-07-23 09:33:00,
2014-07-23 05:34:00,68.9,68.9,30.07,North,0,0.0,0.0,100,0.00,,,0.00,WUHU216WMR968SP,2014-07-23 09:34:00,
2014-07-23 05:36:00,68.9,68.9,30.07,North,0,0.0,0.0,100,0.00,,,0.00,WUHU216WMR968SP,2014-07-23 09:36:00,
2014-07-23 05:37:00,68.9,68.9,30.07,North,0,0.0,0.0,100,0.00,,,0.00,WUHU216WMR968SP,2014-07-23 09:37:00,
2014-07-23 05:38:00,68.9,68.9,30.07,North,0,0.0,0.0,100,0.00,,,0.00,WUHU216WMR968SP,2014-07-23 09:38:00,
2014-07-23 05:39:00,68.9,68.9,30.07,North,0,0.0,0.0,100,0.00,,,0.00,WUHU216WMR968SP,2014-07-23 09:39:00,
2014-07-23 05:40:00,68.9,68.9,30.07,North,0,0.0,0.0,100,0.00,,,0.00,WUHU216WMR968SP,2014-07-23 09:40:00,
2014-07-23 05:42:00,68.9,68.9,30.07,North,0,0.0,0.0,100,0.00,,,0.00,WUHU216WMR968SP,2014-07-23 09:42:00,
2014-07-23 05:43:00,68.9,68.9,30.10,North,0,0.0,0.0,100,0.00,,,0.00,WUHU216WMR968SP,2014-07-23 09:43:00,
2014-07-23 05:44:00,68.9,68.9,30.10,North,0,0.0,0.0,100,0.00,,,0.00,WUHU216WMR968SP,2014-07-23 09:44:00,
2014-07-23 05:45:00,68.9,68.9,30.10,North,0,0.0,0.0,100,0.00,,,0.00,WUHU216WMR968SP,2014-07-23 09:45:00,
2014-07-23 05:47:00,68.9,68.9,30.10,North,0,0.0,0.0,100,0.00,,,0.00,WUHU216WMR968SP,2014-07-23 09:47:00,
2014-07-23 05:48:00,68.9,68.9,30.10,North,0,0.0,0.0,100,0.00,,,0.00,WUHU216WMR968SP,2014-07-23 09:48:00,
2014-07-23 05:49:00,68.9,68.9,30.10,North,0,0.0,0.0,100,0.00,,,0.00,WUHU216WMR968SP,2014-07-23 09:49:00,
2014-07-23 05:50:00,68.9,68.9,30.10,North,0,0.0,0.0,100,0.00,,,0.00,WUHU216WMR968SP,2014-07-23 09:50:00,
2014-07-23 05:53:00,68.9,68.9,30.10,North,0,0.0,0.0,100,0.00,,,0.00,WUHU216WMR968SP,2014-07-23 09:53:00,
2014-07-23 05:54:00,68.9,68.9,30.10,North,0,0.0,0.0,100,0.00,,,0.00,WUHU216WMR968SP,2014-07-23 09:54:00,
2014-07-23 05:56:00,68.9,68.9,30.10,North,0,0.0,0.0,100,0.00,,,0.00,WUHU216WMR968SP,2014-07-23 09:56:00,
2014-07-23 05:59:00,68.9,68.9,30.07,North,0,0.0,0.0,100,0.00,,,0.00,WUHU216WMR968SP,2014-07-23 09:59:00,
2014-07-23 06:00:00,68.9,68.9,30.07,North,0,0.0,0.0,100,0.00,,,0.00,WUHU216WMR968SP,2014-07-23 10:00:00,
2014-07-23 06:01:00,68.9,68.9,30.07,North,0,0.0,0.0,100,0.00,,,0.00,WUHU216WMR968SP,2014-07-23 10:01:00,
2014-07-23 06:04:00,68.9,68.9,30.07,North,0,0.0,0.0,100,0.00,,,0.00,WUHU216WMR968SP,2014-07-23 10:04:00,
2014-07-23 06:05:00,68.9,68.9,30.07,North,0,0.0,0.0,100,0.00,,,0.00,WUHU216WMR968SP,2014-07-23 10:05:00,
2014-07-23 06:06:00,68.9,68.9,30.07,North,0,0.0,0.0,100,0.00,,,0.00,WUHU216WMR968SP,2014-07-23 10:06:00,
2014-07-23 06:09:00,68.9,68.9,30.07,North,0,0.0,0.0,100,0.00,,,0.00,WUHU216WMR968SP,2014-07-23 10:09:00,
2014-07-23 06:10:00,68.9,68.9,30.07,North,0,0.0,0.0,100,0.00,,,0.00,WUHU216WMR968SP,2014-07-23 10:10:00,
2014-07-23 06:11:00,68.9,68.9,30.07,North,0,0.0,0.0,100,0.00,,,0.00,WUHU216WMR968SP,2014-07-23 10:11:00,
2014-07-23 06:14:00,68.9,68.9,30.07,North,0,0.0,0.0,100,0.00,,,0.00,WUHU216WMR968SP,2014-07-23 10:14:00,
2014-07-23 06:15:00,68.9,68.9,30.07,North,0,0.0,0.0,100,0.00,,,0.00,WUHU216WMR968SP,2014-07-23 10:15:00,
2014-07-23 06:16:00,68.9,68.9,30.07,North,0,0.0,0.0,100,0.00,,,0.00,WUHU216WMR968SP,2014-07-23 10:16:00,
2014-07-23 06:19:00,68.9,68.9,30.07,North,0,0.0,0.0,100,0.00,,,0.00,WUHU216WMR968SP,2014-07-23 10:19:00,
2014-07-23 06:20:00,68.9,68.9,30.07,North,0,0.0,0.0,100,0.00,,,0.00,WUHU216WMR968SP,2014-07-23 10:20:00,
2014-07-23 06:21:00,68.9,68.9,30.07,North,0,0.0,0.0,100,0.00,,,0.00,WUHU216WMR968SP,2014-07-23 10:21:00,
2014-07-23 06:24:00,68.9,68.9,30.07,North,0,0.0,0.0,100,0.00,,,0.00,WUHU216WMR968SP,2014-07-23 10:24:00,
2014-07-23 06:25:00,68.9,68.9,30.07,North,0,0.0,0.0,100,0.00,,,0.00,WUHU216WMR968SP,2014-07-23 10:25:00,
2014-07-23 06:26:00,68.9,68.9,30.07,North,0,0.0,0.0,100,0.00,,,0.00,WUHU216WMR968SP,2014-07-23 10:26:00,
2014-07-23 06:27:00,68.9,68.9,30.07,North,0,0.0,0.0,100,0.00,,,0.00,WUHU216WMR968SP,2014-07-23 10:27:00,
2014-07-23 06:29:00,68.9,68.9,30.07,North,0,0.0,0.0,100,0.00,,,0.00,WUHU216WMR968SP,2014-07-23 10:29:00,
2014-07-23 06:30:00,68.9,68.9,30.07,North,0,0.0,0.0,100,0.00,,,0.00,WUHU216WMR968SP,2014-07-23 10:30:00,
2014-07-23 06:31:00,68.9,68.9,30.07,North,0,0.0,0.0,100,0.00,,,0.00,WUHU216WMR968SP,2014-07-23 10:31:00,
2014-07-23 06:33:00,68.9,68.9,30.07,North,0,0.0,0.0,100,0.00,,,0.00,WUHU216WMR968SP,2014-07-23 10:33:00,
2014-07-23 06:34:00,68.9,68.9,30.07,North,0,0.0,0.0,100,0.00,,,0.00,WUHU216WMR968SP,2014-07-23 10:34:00,
2014-07-23 06:36:00,68.9,68.9,30.07,North,0,0.0,0.0,100,0.00,,,0.00,WUHU216WMR968SP,2014-07-23 10:36:00,
2014-07-23 06:38:00,68.9,68.9,30.07,North,0,0.0,0.0,100,0.00,,,0.00,WUHU216WMR968SP,2014-07-23 10:38:00,
2014-07-23 06:39:00,68.9,68.9,30.07,North,0,0.0,0.0,100,0.00,,,0.00,WUHU216WMR968SP,2014-07-23 10:39:00,
2014-07-23 06:41:00,68.9,68.9,30.07,North,0,0.0,0.0,100,0.00,,,0.00,WUHU216WMR968SP,2014-07-23 10:41:00,
2014-07-23 06:42:00,68.7,68.7,30.07,North,0,0.0,0.0,100,0.00,,,0.00,WUHU216WMR968SP,2014-07-23 10:42:00,
2014-07-23 06:43:00,68.7,68.7,30.07,North,0,0.0,0.0,100,0.00,,,0.00,WUHU216WMR968SP,2014-07-23 10:43:00,
2014-07-23 06:44:00,68.7,68.7,30.07,North,0,0.0,0.0,100,0.00,,,0.00,WUHU216WMR968SP,2014-07-23 10:44:00,
2014-07-23 06:46:00,68.7,68.7,30.07,North,0,0.0,0.0,100,0.00,,,0.00,WUHU216WMR968SP,2014-07-23 10:46:00,
2014-07-23 06:47:00,68.7,68.7,30.07,North,0,0.0,0.0,100,0.00,,,0.00,WUHU216WMR968SP,2014-07-23 10:47:00,
2014-07-23 06:48:00,68.7,68.7,30.07,North,0,0.0,0.0,100,0.00,,,0.00,WUHU216WMR968SP,2014-07-23 10:48:00,
2014-07-23 06:49:00,68.7,68.7,30.07,North,0,0.0,0.0,100,0.00,,,0.00,WUHU216WMR968SP,2014-07-23 10:49:00,
2014-07-23 06:51:00,68.5,68.5,30.07,North,0,0.0,0.0,100,0.00,,,0.00,WUHU216WMR968SP,2014-07-23 10:51:00,
2014-07-23 06:53:00,68.5,68.5,30.07,North,0,0.0,0.0,100,0.00,,,0.00,WUHU216WMR968SP,2014-07-23 10:53:00,
2014-07-23 06:55:00,68.5,68.5,30.07,North,0,0.0,0.0,100,0.00,,,0.00,WUHU216WMR968SP,2014-07-23 10:55:00,
2014-07-23 06:56:00,68.5,68.5,30.07,North,0,0.0,0.0,100,0.00,,,0.00,WUHU216WMR968SP,2014-07-23 10:56:00,
2014-07-23 06:58:00,68.5,68.5,30.10,North,0,0.0,0.0,100,0.00,,,0.00,WUHU216WMR968SP,2014-07-23 10:58:00,
2014-07-23 06:59:00,68.5,68.5,30.10,North,0,0.0,0.0,100,0.00,,,0.00,WUHU216WMR968SP,2014-07-23 10:59:00,
2014-07-23 07:00:00,68.7,68.7,30.10,North,0,0.0,0.0,100,0.00,,,0.00,WUHU216WMR968SP,2014-07-23 11:00:00,
2014-07-23 07:01:00,68.7,68.7,30.10,North,0,0.0,0.0,100,0.00,,,0.00,WUHU216WMR968SP,2014-07-23 11:01:00,
2014-07-23 07:03:00,68.7,68.7,30.10,North,0,0.0,0.0,100,0.00,,,0.00,WUHU216WMR968SP,2014-07-23 11:03:00,
2014-07-23 07:04:00,68.7,68.7,30.10,North,0,0.0,0.0,100,0.00,,,0.00,WUHU216WMR968SP,2014-07-23 11:04:00,
2014-07-23 07:05:00,68.7,68.7,30.10,North,0,0.0,0.0,100,0.00,,,0.00,WUHU216WMR968SP,2014-07-23 11:05:00,
2014-07-23 07:06:00,68.7,68.7,30.10,North,0,0.0,0.0,100,0.00,,,0.00,WUHU216WMR968SP,2014-07-23 11:06:00,
2014-07-23 07:08:00,68.7,68.7,30.10,North,0,0.0,0.0,100,0.00,,,0.00,WUHU216WMR968SP,2014-07-23 11:08:00,
2014-07-23 07:09:00,68.9,68.9,30.10,North,0,0.0,0.0,100,0.00,,,0.00,WUHU216WMR968SP,2014-07-23 11:09:00,
2014-07-23 07:10:00,68.9,68.9,30.10,North,0,0.0,0.0,100,0.00,,,0.00,WUHU216WMR968SP,2014-07-23 11:10:00,
2014-07-23 07:11:00,68.9,68.9,30.10,North,0,0.0,0.0,100,0.00,,,0.00,WUHU216WMR968SP,2014-07-23 11:11:00,
2014-07-23 07:12:00,68.9,68.9,30.10,North,0,0.0,0.0,100,0.00,,,0.00,WUHU216WMR968SP,2014-07-23 11:12:00,
2014-07-23 07:13:00,68.9,68.9,30.10,North,0,0.0,0.0,100,0.00,,,0.00,WUHU216WMR968SP,2014-07-23 11:13:00,
2014-07-23 07:15:00,68.9,68.9,30.10,North,0,0.0,0.0,100,0.00,,,0.00,WUHU216WMR968SP,2014-07-23 11:15:00,
2014-07-23 07:16:00,69.1,69.1,30.10,North,0,0.0,0.0,100,0.00,,,0.00,WUHU216WMR968SP,2014-07-23 11:16:00,
2014-07-23 07:18:00,69.1,69.1,30.10,North,0,0.0,0.0,100,0.00,,,0.00,WUHU216WMR968SP,2014-07-23 11:18:00,
2014-07-23 07:19:00,69.1,69.1,30.10,North,0,0.0,0.0,100,0.00,,,0.00,WUHU216WMR968SP,2014-07-23 11:19:00,
2014-07-23 07:20:00,69.1,69.1,30.10,North,0,0.0,0.0,100,0.00,,,0.00,WUHU216WMR968SP,2014-07-23 11:20:00,
2014-07-23 07:22:00,69.1,69.1,30.10,North,0,0.0,0.0,100,0.00,,,0.00,WUHU216WMR968SP,2014-07-23 11:22:00,
2014-07-23 07:24:00,69.1,69.1,30.10,North,0,0.0,0.0,100,0.00,,,0.00,WUHU216WMR968SP,2014-07-23 11:24:00,
2014-07-23 07:25:00,69.1,69.1,30.10,North,0,0.0,0.0,100,0.00,,,0.00,WUHU216WMR968SP,2014-07-23 11:25:00,
2014-07-23 07:26:00,69.1,69.1,30.10,North,0,0.0,0.0,100,0.00,,,0.00,WUHU216WMR968SP,2014-07-23 11:26:00,
2014-07-23 07:27:00,69.1,69.1,30.10,North,0,0.0,0.0,100,0.00,,,0.00,WUHU216WMR968SP,2014-07-23 11:27:00,
2014-07-23 07:29:00,69.3,69.3,30.10,North,0,0.0,0.0,100,0.00,,,0.00,WUHU216WMR968SP,2014-07-23 11:29:00,
2014-07-23 07:30:00,69.3,69.3,30.10,North,0,0.0,0.0,100,0.00,,,0.00,WUHU216WMR968SP,2014-07-23 11:30:00,
2014-07-23 07:31:00,69.3,69.3,30.10,North,0,0.0,0.0,100,0.00,,,0.00,WUHU216WMR968SP,2014-07-23 11:31:00,
2014-07-23 07:32:00,69.3,69.3,30.10,North,0,0.0,0.0,100,0.00,,,0.00,WUHU216WMR968SP,2014-07-23 11:32:00,
2014-07-23 07:34:00,69.3,69.3,30.10,North,0,0.0,0.0,100,0.00,,,0.00,WUHU216WMR968SP,2014-07-23 11:34:00,
2014-07-23 07:35:00,69.3,69.3,30.10,North,0,0.0,0.0,100,0.00,,,0.00,WUHU216WMR968SP,2014-07-23 11:35:00,
2014-07-23 07:36:00,69.3,69.3,30.10,North,0,0.0,0.0,100,0.00,,,0.00,WUHU216WMR968SP,2014-07-23 11:36:00,
2014-07-23 07:37:00,69.3,69.3,30.10,North,0,0.0,0.0,100,0.00,,,0.00,WUHU216WMR968SP,2014-07-23 11:37:00,
2014-07-23 07:40:00,69.4,69.4,30.10,North,0,0.0,0.0,100,0.00,,,0.00,WUHU216WMR968SP,2014-07-23 11:40:00,
2014-07-23 07:41:00,69.4,69.4,30.10,North,0,0.0,0.0,100,0.00,,,0.00,WUHU216WMR968SP,2014-07-23 11:41:00,
2014-07-23 07:42:00,69.4,69.4,30.10,North,0,0.0,0.0,100,0.00,,,0.00,WUHU216WMR968SP,2014-07-23 11:42:00,
2014-07-23 07:45:00,69.6,69.6,30.10,North,0,0.0,0.0,100,0.00,,,0.00,WUHU216WMR968SP,2014-07-23 11:45:00,
2014-07-23 07:46:00,69.6,69.6,30.10,North,0,0.0,0.0,100,0.00,,,0.00,WUHU216WMR968SP,2014-07-23 11:46:00,
2014-07-23 07:47:00,69.6,69.6,30.10,North,0,0.0,0.0,100,0.00,,,0.00,WUHU216WMR968SP,2014-07-23 11:47:00,
2014-07-23 07:50:00,69.8,69.8,30.10,North,0,0.0,0.0,100,0.00,,,0.00,WUHU216WMR968SP,2014-07-23 11:50:00,
2014-07-23 07:51:00,69.8,69.8,30.10,North,0,0.0,0.0,100,0.00,,,0.00,WUHU216WMR968SP,2014-07-23 11:51:00,
2014-07-23 07:52:00,69.8,69.8,30.10,North,0,0.0,0.0,100,0.00,,,0.00,WUHU216WMR968SP,2014-07-23 11:52:00,
2014-07-23 07:55:00,70.0,70.0,30.10,North,0,0.0,0.0,100,0.00,,,0.00,WUHU216WMR968SP,2014-07-23 11:55:00,
2014-07-23 07:57:00,70.0,70.0,30.10,North,0,0.0,0.0,100,0.00,,,0.00,WUHU216WMR968SP,2014-07-23 11:57:00,
2014-07-23 08:00:00,70.2,70.2,30.10,North,0,0.0,0.0,100,0.00,,,0.00,WUHU216WMR968SP,2014-07-23 12:00:00,
2014-07-23 08:02:00,70.2,70.2,30.10,North,0,0.0,0.0,100,0.00,,,0.00,WUHU216WMR968SP,2014-07-23 12:02:00,
2014-07-23 08:03:00,70.2,70.2,30.10,North,0,0.0,0.0,100,0.00,,,0.00,WUHU216WMR968SP,2014-07-23 12:03:00,
2014-07-23 08:06:00,70.3,70.3,30.10,North,0,0.0,0.0,100,0.00,,,0.00,WUHU216WMR968SP,2014-07-23 12:06:00,
2014-07-23 08:07:00,70.3,70.3,30.10,North,0,0.0,0.0,100,0.00,,,0.00,WUHU216WMR968SP,2014-07-23 12:07:00,
2014-07-23 08:08:00,70.3,70.3,30.10,North,0,0.0,0.0,100,0.00,,,0.00,WUHU216WMR968SP,2014-07-23 12:08:00,
2014-07-23 08:09:00,70.3,70.3,30.10,North,0,0.0,0.0,100,0.00,,,0.00,WUHU216WMR968SP,2014-07-23 12:09:00,
2014-07-23 08:11:00,70.3,70.3,30.10,North,0,0.0,0.0,100,0.00,,,0.00,WUHU216WMR968SP,2014-07-23 12:11:00,
2014-07-23 08:12:00,70.5,70.5,30.10,North,0,0.0,0.0,100,0.00,,,0.00,WUHU216WMR968SP,2014-07-23 12:12:00,
2014-07-23 08:13:00,70.5,70.5,30.10,North,0,0.0,0.0,100,0.00,,,0.00,WUHU216WMR968SP,2014-07-23 12:13:00,
2014-07-23 08:14:00,70.5,70.5,30.10,North,0,0.0,0.0,100,0.00,,,0.00,WUHU216WMR968SP,2014-07-23 12:14:00,
2014-07-23 08:16:00,70.7,70.7,30.10,North,0,0.0,0.0,100,0.00,,,0.00,WUHU216WMR968SP,2014-07-23 12:16:00,
2014-07-23 08:17:00,70.7,70.7,30.10,North,0,0.0,0.0,100,0.00,,,0.00,WUHU216WMR968SP,2014-07-23 12:17:00,
2014-07-23 08:18:00,70.7,70.7,30.10,North,0,0.0,0.0,100,0.00,,,0.00,WUHU216WMR968SP,2014-07-23 12:18:00,
2014-07-23 08:19:00,70.7,70.7,30.10,North,0,0.0,0.0,100,0.00,,,0.00,WUHU216WMR968SP,2014-07-23 12:19:00,
2014-07-23 08:21:00,70.9,70.9,30.10,North,0,0.0,0.0,100,0.00,,,0.00,WUHU216WMR968SP,2014-07-23 12:21:00,
2014-07-23 08:23:00,70.9,70.9,30.10,North,0,0.0,0.0,100,0.00,,,0.00,WUHU216WMR968SP,2014-07-23 12:23:00,
2014-07-23 08:24:00,71.1,71.1,30.10,North,0,0.0,0.0,100,0.00,,,0.00,WUHU216WMR968SP,2014-07-23 12:24:00,
2014-07-23 08:26:00,71.1,71.1,30.10,North,0,0.0,0.0,100,0.00,,,0.00,WUHU216WMR968SP,2014-07-23 12:26:00,
2014-07-23 08:28:00,71.1,71.1,30.10,North,0,0.0,0.0,100,0.00,,,0.00,WUHU216WMR968SP,2014-07-23 12:28:00,
2014-07-23 08:29:00,71.1,71.1,30.10,North,0,0.0,0.0,100,0.00,,,0.00,WUHU216WMR968SP,2014-07-23 12:29:00,
2014-07-23 08:30:00,71.1,71.1,30.10,North,0,0.0,0.0,100,0.00,,,0.00,WUHU216WMR968SP,2014-07-23 12:30:00,
2014-07-23 08:32:00,71.4,71.4,30.10,North,0,0.0,0.0,100,0.00,,,0.00,WUHU216WMR968SP,2014-07-23 12:32:00,
2014-07-23 08:34:00,71.4,71.4,30.10,North,0,0.0,0.0,100,0.00,,,0.00,WUHU216WMR968SP,2014-07-23 12:34:00,
2014-07-23 08:35:00,71.4,71.4,30.10,North,0,0.0,0.0,100,0.00,,,0.00,WUHU216WMR968SP,2014-07-23 12:35:00,
2014-07-23 08:37:00,72.0,72.0,30.10,North,0,0.0,0.0,100,0.00,,,0.00,WUHU216WMR968SP,2014-07-23 12:37:00,
2014-07-23 08:39:00,72.0,72.0,30.10,North,0,0.0,0.0,100,0.00,,,0.00,WUHU216WMR968SP,2014-07-23 12:39:00,
2014-07-23 08:40:00,72.1,72.1,30.10,North,0,0.0,0.0,100,0.00,,,0.00,WUHU216WMR968SP,2014-07-23 12:40:00,
2014-07-23 08:43:00,72.3,72.3,30.10,North,0,0.0,0.0,100,0.00,,,0.00,WUHU216WMR968SP,2014-07-23 12:43:00,
2014-07-23 08:44:00,72.3,72.3,30.10,North,0,0.0,0.0,100,0.00,,,0.00,WUHU216WMR968SP,2014-07-23 12:44:00,
2014-07-23 08:45:00,72.3,72.3,30.10,North,0,0.0,0.0,100,0.00,,,0.00,WUHU216WMR968SP,2014-07-23 12:45:00,
2014-07-23 08:46:00,72.5,72.5,30.10,North,0,0.0,0.0,100,0.00,,,0.00,WUHU216WMR968SP,2014-07-23 12:46:00,
2014-07-23 08:48:00,72.7,72.7,30.10,North,0,0.0,0.0,100,0.00,,,0.00,WUHU216WMR968SP,2014-07-23 12:48:00,
2014-07-23 08:49:00,72.7,72.7,30.10,North,0,0.0,0.0,100,0.00,,,0.00,WUHU216WMR968SP,2014-07-23 12:49:00,
2014-07-23 08:50:00,72.7,72.7,30.10,North,0,0.0,0.0,100,0.00,,,0.00,WUHU216WMR968SP,2014-07-23 12:50:00,
2014-07-23 08:51:00,72.9,72.9,30.10,North,0,0.0,0.0,100,0.00,,,0.00,WUHU216WMR968SP,2014-07-23 12:51:00,
2014-07-23 08:53:00,73.0,73.0,30.10,North,0,0.0,0.0,100,0.00,,,0.00,WUHU216WMR968SP,2014-07-23 12:53:00,
2014-07-23 08:54:00,73.0,73.0,30.10,North,0,0.0,0.0,100,0.00,,,0.00,WUHU216WMR968SP,2014-07-23 12:54:00,
2014-07-23 08:55:00,73.0,73.0,30.10,North,0,0.0,0.0,100,0.00,,,0.00,WUHU216WMR968SP,2014-07-23 12:55:00,
2014-07-23 08:56:00,73.0,73.0,30.10,North,0,0.0,0.0,100,0.00,,,0.00,WUHU216WMR968SP,2014-07-23 12:56:00,
2014-07-23 08:59:00,73.4,73.4,30.10,North,0,0.0,0.0,100,0.00,,,0.00,WUHU216WMR968SP,2014-07-23 12:59:00,
2014-07-23 09:00:00,73.4,73.4,30.10,North,0,0.0,0.0,100,0.00,,,0.00,WUHU216WMR968SP,2014-07-23 13:00:00,
2014-07-23 09:01:00,73.4,73.4,30.10,North,0,0.0,0.0,100,0.00,,,0.00,WUHU216WMR968SP,2014-07-23 13:01:00,
2014-07-23 09:04:00,73.6,73.6,30.10,North,0,0.0,0.0,100,0.00,,,0.00,WUHU216WMR968SP,2014-07-23 13:04:00,
2014-07-23 09:05:00,73.6,73.6,30.10,North,0,0.0,0.0,100,0.00,,,0.00,WUHU216WMR968SP,2014-07-23 13:05:00,
2014-07-23 09:06:00,73.8,73.8,30.10,North,0,0.0,0.0,100,0.00,,,0.00,WUHU216WMR968SP,2014-07-23 13:06:00,
2014-07-23 09:09:00,73.8,73.8,30.10,North,0,0.0,0.0,100,0.00,,,0.00,WUHU216WMR968SP,2014-07-23 13:09:00,
2014-07-23 09:10:00,73.9,73.9,30.10,North,0,0.0,0.0,100,0.00,,,0.00,WUHU216WMR968SP,2014-07-23 13:10:00,
2014-07-23 09:11:00,73.9,73.9,30.10,North,0,0.0,0.0,100,0.00,,,0.00,WUHU216WMR968SP,2014-07-23 13:11:00,
2014-07-23 09:12:00,73.9,73.9,30.10,North,0,0.0,0.0,100,0.00,,,0.00,WUHU216WMR968SP,2014-07-23 13:12:00,
2014-07-23 09:15:00,74.1,74.1,30.10,North,0,0.0,0.0,100,0.00,,,0.00,WUHU216WMR968SP,2014-07-23 13:15:00,
2014-07-23 09:16:00,74.1,74.1,30.10,North,0,0.0,0.0,100,0.00,,,0.00,WUHU216WMR968SP,2014-07-23 13:16:00,
2014-07-23 09:17:00,74.1,74.1,30.10,North,0,0.0,0.0,100,0.00,,,0.00,WUHU216WMR968SP,2014-07-23 13:17:00,
2014-07-23 09:18:00,74.1,74.1,30.10,North,0,0.0,0.0,100,0.00,,,0.00,WUHU216WMR968SP,2014-07-23 13:18:00,
2014-07-23 09:20:00,74.5,74.5,30.10,North,0,0.0,0.0,100,0.00,,,0.00,WUHU216WMR968SP,2014-07-23 13:20:00,
2014-07-23 09:21:00,74.5,74.5,30.10,North,0,0.0,0.0,100,0.00,,,0.00,WUHU216WMR968SP,2014-07-23 13:21:00,
2014-07-23 09:22:00,74.5,74.5,30.10,North,0,0.0,0.0,100,0.00,,,0.00,WUHU216WMR968SP,2014-07-23 13:22:00,
2014-07-23 09:23:00,74.7,74.7,30.10,North,0,0.0,0.0,100,0.00,,,0.00,WUHU216WMR968SP,2014-07-23 13:23:00,
2014-07-23 09:25:00,74.7,74.7,30.10,North,0,0.0,0.0,100,0.00,,,0.00,WUHU216WMR968SP,2014-07-23 13:25:00,
2014-07-23 09:26:00,74.7,74.7,30.10,North,0,0.0,0.0,100,0.00,,,0.00,WUHU216WMR968SP,2014-07-23 13:26:00,
2014-07-23 09:27:00,74.7,74.7,30.10,North,0,0.0,0.0,100,0.00,,,0.00,WUHU216WMR968SP,2014-07-23 13:27:00,
2014-07-23 09:28:00,74.7,74.7,30.10,North,0,0.0,0.0,100,0.00,,,0.00,WUHU216WMR968SP,2014-07-23 13:28:00,
2014-07-23 09:31:00,74.7,74.7,30.10,North,0,0.0,0.0,100,0.00,,,0.00,WUHU216WMR968SP,2014-07-23 13:31:00,
2014-07-23 09:32:00,74.7,74.7,30.10,North,0,0.0,0.0,100,0.00,,,0.00,WUHU216WMR968SP,2014-07-23 13:32:00,
2014-07-23 09:33:00,74.7,74.7,30.10,North,0,0.0,0.0,100,0.00,,,0.00,WUHU216WMR968SP,2014-07-23 13:33:00,
2014-07-23 09:34:00,74.7,74.7,30.10,North,0,0.0,0.0,100,0.00,,,0.00,WUHU216WMR968SP,2014-07-23 13:34:00,
2014-07-23 09:36:00,74.7,74.7,30.10,North,0,0.0,0.0,100,0.00,,,0.00,WUHU216WMR968SP,2014-07-23 13:36:00,
2014-07-23 09:37:00,74.7,74.7,30.10,North,0,0.0,0.0,100,0.00,,,0.00,WUHU216WMR968SP,2014-07-23 13:37:00,
2014-07-23 09:38:00,74.5,74.5,30.10,North,0,0.0,0.0,100,0.00,,,0.00,WUHU216WMR968SP,2014-07-23 13:38:00,
2014-07-23 09:39:00,74.5,74.5,30.10,North,0,0.0,0.0,100,0.00,,,0.00,WUHU216WMR968SP,2014-07-23 13:39:00,
2014-07-23 09:41:00,74.5,74.5,30.10,North,0,0.0,0.0,100,0.00,,,0.00,WUHU216WMR968SP,2014-07-23 13:41:00,
2014-07-23 09:42:00,74.5,74.5,30.10,North,0,0.0,0.0,100,0.00,,,0.00,WUHU216WMR968SP,2014-07-23 13:42:00,
2014-07-23 09:43:00,74.5,74.5,30.10,North,0,0.0,0.0,100,0.00,,,0.00,WUHU216WMR968SP,2014-07-23 13:43:00,
2014-07-23 09:44:00,74.5,74.5,30.10,North,0,0.0,0.0,100,0.00,,,0.00,WUHU216WMR968SP,2014-07-23 13:44:00,
2014-07-23 09:46:00,74.7,74.7,30.10,North,0,0.0,0.0,100,0.00,,,0.00,WUHU216WMR968SP,2014-07-23 13:46:00,
2014-07-23 09:47:00,74.7,74.7,30.10,North,0,0.0,0.0,100,0.00,,,0.00,WUHU216WMR968SP,2014-07-23 13:47:00,
2014-07-23 09:49:00,74.7,74.7,30.10,North,0,0.0,0.0,100,0.00,,,0.00,WUHU216WMR968SP,2014-07-23 13:49:00,
2014-07-23 09:50:00,74.7,74.7,30.10,North,0,0.0,0.0,100,0.00,,,0.00,WUHU216WMR968SP,2014-07-23 13:50:00,
2014-07-23 09:51:00,74.8,74.8,30.10,North,0,0.0,0.0,100,0.00,,,0.00,WUHU216WMR968SP,2014-07-23 13:51:00,
2014-07-23 09:52:00,74.8,74.8,30.10,North,0,0.0,0.0,100,0.00,,,0.00,WUHU216WMR968SP,2014-07-23 13:52:00,
2014-07-23 09:53:00,74.8,74.8,30.10,North,0,0.0,0.0,100,0.00,,,0.00,WUHU216WMR968SP,2014-07-23 13:53:00,
2014-07-23 09:54:00,74.8,74.8,30.10,North,0,0.0,0.0,100,0.00,,,0.00,WUHU216WMR968SP,2014-07-23 13:54:00,
2014-07-23 09:55:00,74.8,74.8,30.10,North,0,0.0,0.0,100,0.00,,,0.00,WUHU216WMR968SP,2014-07-23 13:55:00,
2014-07-23 09:56:00,75.0,75.0,30.10,North,0,0.0,0.0,100,0.00,,,0.00,WUHU216WMR968SP,2014-07-23 13:56:00,
2014-07-23 09:57:00,75.0,75.0,30.10,North,0,0.0,0.0,100,0.00,,,0.00,WUHU216WMR968SP,2014-07-23 13:57:00,
2014-07-23 09:58:00,75.0,75.0,30.10,North,0,0.0,0.0,100,0.00,,,0.00,WUHU216WMR968SP,2014-07-23 13:58:00,
2014-07-23 10:00:00,75.0,75.0,30.10,North,0,0.0,0.0,100,0.00,,,0.00,WUHU216WMR968SP,2014-07-23 14:00:00,
2014-07-23 10:01:00,75.0,75.0,30.10,North,0,0.0,0.0,100,0.00,,,0.00,WUHU216WMR968SP,2014-07-23 14:01:00,
2014-07-23 10:02:00,75.0,75.0,30.10,North,0,0.0,0.0,100,0.00,,,0.00,WUHU216WMR968SP,2014-07-23 14:02:00,
2014-07-23 10:03:00,75.0,75.0,30.10,North,0,0.0,0.0,100,0.00,,,0.00,WUHU216WMR968SP,2014-07-23 14:03:00,
2014-07-23 10:04:00,75.0,75.0,30.10,North,0,0.0,0.0,100,0.00,,,0.00,WUHU216WMR968SP,2014-07-23 14:04:00,
2014-07-23 10:05:00,75.0,75.0,30.10,North,0,0.0,0.0,100,0.00,,,0.00,WUHU216WMR968SP,2014-07-23 14:05:00,
2014-07-23 10:07:00,75.0,75.0,30.10,North,0,0.0,0.0,100,0.00,,,0.00,WUHU216WMR968SP,2014-07-23 14:07:00,
2014-07-23 10:08:00,75.0,75.0,30.10,North,0,0.0,0.0,100,0.00,,,0.00,WUHU216WMR968SP,2014-07-23 14:08:00,
2014-07-23 10:09:00,75.0,75.0,30.10,North,0,0.0,0.0,100,0.00,,,0.00,WUHU216WMR968SP,2014-07-23 14:09:00,
2014-07-23 10:10:00,75.0,75.0,30.10,North,0,0.0,0.0,100,0.00,,,0.00,WUHU216WMR968SP,2014-07-23 14:10:00,
2014-07-23 10:12:00,74.8,74.8,30.10,North,0,0.0,0.0,100,0.00,,,0.00,WUHU216WMR968SP,2014-07-23 14:12:00,
2014-07-23 10:13:00,74.8,74.8,30.10,North,0,0.0,0.0,100,0.00,,,0.00,WUHU216WMR968SP,2014-07-23 14:13:00,
2014-07-23 10:14:00,74.8,74.8,30.10,North,0,0.0,0.0,100,0.00,,,0.00,WUHU216WMR968SP,2014-07-23 14:14:00,
2014-07-23 10:15:00,74.8,74.8,30.10,North,0,0.0,0.0,100,0.00,,,0.00,WUHU216WMR968SP,2014-07-23 14:15:00,
2014-07-23 10:18:00,74.8,74.8,30.10,North,0,0.0,0.0,100,0.00,,,0.00,WUHU216WMR968SP,2014-07-23 14:18:00,
2014-07-23 10:19:00,75.0,75.0,30.10,North,0,0.0,0.0,100,0.00,,,0.00,WUHU216WMR968SP,2014-07-23 14:19:00,
2014-07-23 10:21:00,75.0,75.0,30.10,North,0,0.0,0.0,100,0.00,,,0.00,WUHU216WMR968SP,2014-07-23 14:21:00,
2014-07-23 10:23:00,75.0,75.0,30.10,North,0,0.0,0.0,100,0.00,,,0.00,WUHU216WMR968SP,2014-07-23 14:23:00,
2014-07-23 10:24:00,75.0,75.0,30.10,North,0,0.0,0.0,100,0.00,,,0.00,WUHU216WMR968SP,2014-07-23 14:24:00,
2014-07-23 10:26:00,75.2,75.2,30.10,North,0,0.0,0.0,100,0.00,,,0.00,WUHU216WMR968SP,2014-07-23 14:26:00,
2014-07-23 10:28:00,75.2,75.2,30.10,North,0,0.0,0.0,100,0.00,,,0.00,WUHU216WMR968SP,2014-07-23 14:28:00,
2014-07-23 10:29:00,75.2,75.2,30.10,North,0,0.0,0.0,100,0.00,,,0.00,WUHU216WMR968SP,2014-07-23 14:29:00,
2014-07-23 10:31:00,75.4,75.4,30.10,North,0,0.0,0.0,100,0.00,,,0.00,WUHU216WMR968SP,2014-07-23 14:31:00,
2014-07-23 10:33:00,75.6,75.6,30.10,North,0,0.0,0.0,100,0.00,,,0.00,WUHU216WMR968SP,2014-07-23 14:33:00,
2014-07-23 10:34:00,75.6,75.6,30.10,North,0,0.0,0.0,100,0.00,,,0.00,WUHU216WMR968SP,2014-07-23 14:34:00,
2014-07-23 10:35:00,75.4,75.4,30.10,North,0,0.0,0.0,100,0.00,,,0.00,WUHU216WMR968SP,2014-07-23 14:35:00,
2014-07-23 10:36:00,75.4,75.4,30.10,North,0,0.0,0.0,100,0.00,,,0.00,WUHU216WMR968SP,2014-07-23 14:36:00,
2014-07-23 10:38:00,75.4,75.4,30.10,North,0,0.0,0.0,100,0.00,,,0.00,WUHU216WMR968SP,2014-07-23 14:38:00,
2014-07-23 10:39:00,75.4,75.4,30.10,North,0,0.0,0.0,100,0.00,,,0.00,WUHU216WMR968SP,2014-07-23 14:39:00,
2014-07-23 10:40:00,75.4,75.4,30.10,North,0,0.0,0.0,100,0.00,,,0.00,WUHU216WMR968SP,2014-07-23 14:40:00,
2014-07-23 10:42:00,75.4,75.4,30.10,North,0,0.0,0.0,100,0.00,,,0.00,WUHU216WMR968SP,2014-07-23 14:42:00,
2014-07-23 10:43:00,75.2,75.2,30.10,North,0,0.0,0.0,100,0.00,,,0.00,WUHU216WMR968SP,2014-07-23 14:43:00,
2014-07-23 10:44:00,75.2,75.2,30.10,North,0,0.0,0.0,100,0.00,,,0.00,WUHU216WMR968SP,2014-07-23 14:44:00,
2014-07-23 10:45:00,75.2,75.2,30.10,North,0,0.0,0.0,100,0.00,,,0.00,WUHU216WMR968SP,2014-07-23 14:45:00,
2014-07-23 10:46:00,75.2,75.2,30.10,North,0,0.0,0.0,100,0.00,,,0.00,WUHU216WMR968SP,2014-07-23 14:46:00,
2014-07-23 10:47:00,75.2,75.2,30.10,North,0,0.0,0.0,100,0.00,,,0.00,WUHU216WMR968SP,2014-07-23 14:47:00,
2014-07-23 10:49:00,75.2,75.2,30.10,North,0,0.0,0.0,100,0.00,,,0.00,WUHU216WMR968SP,2014-07-23 14:49:00,
2014-07-23 10:51:00,75.4,75.4,30.10,North,0,0.0,0.0,100,0.00,,,0.00,WUHU216WMR968SP,2014-07-23 14:51:00,
2014-07-23 10:52:00,75.4,75.4,30.10,North,0,0.0,0.0,100,0.00,,,0.00,WUHU216WMR968SP,2014-07-23 14:52:00,
2014-07-23 10:54:00,75.4,75.4,30.10,North,0,0.0,0.0,100,0.00,,,0.00,WUHU216WMR968SP,2014-07-23 14:54:00,
2014-07-23 10:56:00,75.6,75.6,30.10,North,0,0.0,0.0,100,0.00,,,0.00,WUHU216WMR968SP,2014-07-23 14:56:00,
2014-07-23 10:58:00,75.6,75.6,30.10,North,0,0.0,0.0,100,0.00,,,0.00,WUHU216WMR968SP,2014-07-23 14:58:00,
2014-07-23 10:59:00,75.6,75.6,30.10,North,0,0.0,0.0,100,0.00,,,0.00,WUHU216WMR968SP,2014-07-23 14:59:00,
2014-07-23 11:01:00,75.7,75.7,30.10,North,0,0.0,0.0,100,0.00,,,0.00,WUHU216WMR968SP,2014-07-23 15:01:00,
2014-07-23 11:02:00,75.7,75.7,30.10,North,0,0.0,0.0,100,0.00,,,0.00,WUHU216WMR968SP,2014-07-23 15:02:00,
2014-07-23 11:03:00,75.9,75.9,30.10,North,0,0.0,0.0,100,0.00,,,0.00,WUHU216WMR968SP,2014-07-23 15:03:00,
2014-07-23 11:04:00,75.9,75.9,30.10,North,0,0.0,0.0,100,0.00,,,0.00,WUHU216WMR968SP,2014-07-23 15:04:00,
2014-07-23 11:07:00,75.9,75.9,30.10,North,0,0.0,0.0,100,0.00,,,0.00,WUHU216WMR968SP,2014-07-23 15:07:00,
2014-07-23 11:08:00,76.1,76.1,30.10,North,0,0.0,0.0,100,0.00,,,0.00,WUHU216WMR968SP,2014-07-23 15:08:00,
2014-07-23 11:09:00,76.1,76.1,30.10,North,0,0.0,0.0,100,0.00,,,0.00,WUHU216WMR968SP,2014-07-23 15:09:00,
2014-07-23 11:10:00,76.1,76.1,30.10,North,0,0.0,0.0,100,0.00,,,0.00,WUHU216WMR968SP,2014-07-23 15:10:00,
2014-07-23 11:12:00,76.3,76.3,30.10,North,0,0.0,0.0,100,0.00,,,0.00,WUHU216WMR968SP,2014-07-23 15:12:00,
2014-07-23 11:13:00,76.3,76.3,30.10,North,0,0.0,0.0,100,0.00,,,0.00,WUHU216WMR968SP,2014-07-23 15:13:00,
2014-07-23 11:15:00,76.5,76.5,30.10,North,0,0.0,0.0,100,0.00,,,0.00,WUHU216WMR968SP,2014-07-23 15:15:00,
2014-07-23 11:16:00,76.5,76.5,30.10,North,0,0.0,0.0,100,0.00,,,0.00,WUHU216WMR968SP,2014-07-23 15:16:00,
2014-07-23 11:17:00,76.5,76.5,30.10,North,0,0.0,0.0,100,0.00,,,0.00,WUHU216WMR968SP,2014-07-23 15:17:00,
2014-07-23 11:18:00,76.5,76.5,30.10,North,0,0.0,0.0,100,0.00,,,0.00,WUHU216WMR968SP,2014-07-23 15:18:00,
2014-07-23 11:20:00,76.5,76.5,30.10,North,0,0.0,0.0,100,0.00,,,0.00,WUHU216WMR968SP,2014-07-23 15:20:00,
2014-07-23 11:21:00,76.5,76.5,30.10,North,0,0.0,0.0,100,0.00,,,0.00,WUHU216WMR968SP,2014-07-23 15:21:00,
2014-07-23 11:22:00,76.5,76.5,30.10,North,0,0.0,0.0,100,0.00,,,0.00,WUHU216WMR968SP,2014-07-23 15:22:00,
2014-07-23 11:23:00,76.5,76.5,30.10,North,0,0.0,0.0,100,0.00,,,0.00,WUHU216WMR968SP,2014-07-23 15:23:00,
2014-07-23 11:25:00,76.6,76.6,30.10,North,0,0.0,0.0,100,0.00,,,0.00,WUHU216WMR968SP,2014-07-23 15:25:00,
2014-07-23 11:27:00,76.6,76.6,30.10,North,0,0.0,0.0,100,0.00,,,0.00,WUHU216WMR968SP,2014-07-23 15:27:00,
2014-07-23 11:28:00,76.6,76.6,30.10,North,0,0.0,0.0,100,0.00,,,0.00,WUHU216WMR968SP,2014-07-23 15:28:00,
2014-07-23 11:29:00,76.6,76.6,30.10,North,0,0.0,0.0,100,0.00,,,0.00,WUHU216WMR968SP,2014-07-23 15:29:00,
2014-07-23 11:30:00,76.6,76.6,30.10,North,0,0.0,0.0,100,0.00,,,0.00,WUHU216WMR968SP,2014-07-23 15:30:00,
2014-07-23 11:32:00,76.8,76.8,30.10,North,0,0.0,0.0,100,0.00,,,0.00,WUHU216WMR968SP,2014-07-23 15:32:00,
2014-07-23 11:33:00,76.8,76.8,30.10,North,0,0.0,0.0,100,0.00,,,0.00,WUHU216WMR968SP,2014-07-23 15:33:00,
2014-07-23 11:35:00,77.0,77.0,30.10,North,0,0.0,0.0,100,0.00,,,0.00,WUHU216WMR968SP,2014-07-23 15:35:00,
2014-07-23 11:36:00,77.0,77.0,30.10,North,0,0.0,0.0,100,0.00,,,0.00,WUHU216WMR968SP,2014-07-23 15:36:00,
2014-07-23 11:37:00,77.2,77.2,30.10,North,0,0.0,0.0,100,0.00,,,0.00,WUHU216WMR968SP,2014-07-23 15:37:00,
2014-07-23 11:38:00,77.2,77.2,30.10,North,0,0.0,0.0,100,0.00,,,0.00,WUHU216WMR968SP,2014-07-23 15:38:00,
2014-07-23 11:39:00,77.2,77.2,30.10,North,0,0.0,0.0,100,0.00,,,0.00,WUHU216WMR968SP,2014-07-23 15:39:00,
2014-07-23 11:41:00,77.4,77.4,30.10,North,0,0.0,0.0,100,0.00,,,0.00,WUHU216WMR968SP,2014-07-23 15:41:00,
2014-07-23 11:42:00,77.4,77.4,30.10,North,0,0.0,0.0,100,0.00,,,0.00,WUHU216WMR968SP,2014-07-23 15:42:00,
2014-07-23 11:43:00,77.5,77.5,30.07,North,0,0.0,0.0,100,0.00,,,0.00,WUHU216WMR968SP,2014-07-23 15:43:00,
2014-07-23 11:44:00,77.5,77.5,30.07,North,0,0.0,0.0,100,0.00,,,0.00,WUHU216WMR968SP,2014-07-23 15:44:00,
2014-07-23 11:46:00,77.7,77.7,30.07,North,0,0.0,0.0,100,0.00,,,0.00,WUHU216WMR968SP,2014-07-23 15:46:00,
2014-07-23 11:47:00,77.7,77.7,30.07,North,0,0.0,0.0,100,0.00,,,0.00,WUHU216WMR968SP,2014-07-23 15:47:00,
2014-07-23 11:48:00,77.9,77.9,30.07,North,0,0.0,0.0,100,0.00,,,0.00,WUHU216WMR968SP,2014-07-23 15:48:00,
2014-07-23 11:49:00,77.9,77.9,30.07,North,0,0.0,0.0,100,0.00,,,0.00,WUHU216WMR968SP,2014-07-23 15:49:00,
2014-07-23 11:51:00,78.3,78.3,30.07,North,0,0.0,0.0,100,0.00,,,0.00,WUHU216WMR968SP,2014-07-23 15:51:00,
2014-07-23 11:52:00,78.3,78.3,30.07,North,0,0.0,0.0,100,0.00,,,0.00,WUHU216WMR968SP,2014-07-23 15:52:00,
2014-07-23 11:53:00,78.3,78.3,30.07,North,0,0.0,0.0,100,0.00,,,0.00,WUHU216WMR968SP,2014-07-23 15:53:00,
2014-07-23 11:54:00,78.6,78.6,30.07,North,0,0.0,0.0,100,0.00,,,0.00,WUHU216WMR968SP,2014-07-23 15:54:00,
2014-07-23 11:57:00,79.0,79.0,30.07,North,0,0.0,0.0,100,0.00,,,0.00,WUHU216WMR968SP,2014-07-23 15:57:00,
2014-07-23 11:58:00,79.0,79.0,30.07,North,0,0.0,0.0,100,0.00,,,0.00,WUHU216WMR968SP,2014-07-23 15:58:00,
2014-07-23 11:59:00,79.0,79.0,30.07,North,0,0.0,0.0,100,0.00,,,0.00,WUHU216WMR968SP,2014-07-23 15:59:00,
2014-07-23 12:00:00,79.0,79.0,30.07,North,0,0.0,0.0,100,0.00,,,0.00,WUHU216WMR968SP,2014-07-23 16:00:00,
2014-07-23 12:02:00,79.5,79.5,30.07,North,0,0.0,0.0,100,0.00,,,0.00,WUHU216WMR968SP,2014-07-23 16:02:00,
2014-07-23 12:03:00,79.5,79.5,30.07,North,0,0.0,0.0,100,0.00,,,0.00,WUHU216WMR968SP,2014-07-23 16:03:00,
2014-07-23 12:04:00,79.5,79.5,30.07,North,0,0.0,0.0,100,0.00,,,0.00,WUHU216WMR968SP,2014-07-23 16:04:00,
2014-07-23 12:05:00,79.9,79.9,30.07,North,0,0.0,0.0,100,0.00,,,0.00,WUHU216WMR968SP,2014-07-23 16:05:00,
2014-07-23 12:07:00,80.2,80.2,30.07,North,0,0.0,0.0,100,0.00,,,0.00,WUHU216WMR968SP,2014-07-23 16:07:00,
2014-07-23 12:08:00,80.4,80.4,30.07,North,0,0.0,0.0,100,0.00,,,0.00,WUHU216WMR968SP,2014-07-23 16:08:00,
2014-07-23 12:09:00,80.4,80.4,30.07,North,0,0.0,0.0,100,0.00,,,0.00,WUHU216WMR968SP,2014-07-23 16:09:00,
2014-07-23 12:10:00,80.6,80.6,30.07,North,0,0.0,0.0,100,0.00,,,0.00,WUHU216WMR968SP,2014-07-23 16:10:00,
2014-07-23 12:12:00,80.8,80.8,30.07,North,0,0.0,0.0,100,0.00,,,0.00,WUHU216WMR968SP,2014-07-23 16:12:00,
2014-07-23 12:13:00,81.0,81.0,30.07,North,0,0.0,0.0,100,0.00,,,0.00,WUHU216WMR968SP,2014-07-23 16:13:00,
2014-07-23 12:14:00,81.0,81.0,30.07,North,0,0.0,0.0,100,0.00,,,0.00,WUHU216WMR968SP,2014-07-23 16:14:00,
2014-07-23 12:16:00,81.1,81.1,30.07,North,0,0.0,0.0,100,0.00,,,0.00,WUHU216WMR968SP,2014-07-23 16:16:00,
2014-07-23 12:17:00,80.6,80.6,30.07,North,0,0.0,0.0,100,0.00,,,0.00,WUHU216WMR968SP,2014-07-23 16:17:00,
2014-07-23 12:18:00,80.8,80.8,30.07,North,0,0.0,0.0,100,0.00,,,0.00,WUHU216WMR968SP,2014-07-23 16:18:00,
2014-07-23 12:19:00,80.8,80.8,30.07,North,0,0.0,0.0,100,0.00,,,0.00,WUHU216WMR968SP,2014-07-23 16:19:00,
2014-07-23 12:20:00,80.8,80.8,30.07,North,0,0.0,0.0,100,0.00,,,0.00,WUHU216WMR968SP,2014-07-23 16:20:00,
2014-07-23 12:21:00,81.3,81.3,30.07,North,0,0.0,0.0,100,0.00,,,0.00,WUHU216WMR968SP,2014-07-23 16:21:00,
2014-07-23 12:22:00,81.7,81.7,30.07,North,0,0.0,0.0,100,0.00,,,0.00,WUHU216WMR968SP,2014-07-23 16:22:00,
2014-07-23 12:23:00,81.7,81.7,30.07,North,0,0.0,0.0,100,0.00,,,0.00,WUHU216WMR968SP,2014-07-23 16:23:00,
2014-07-23 12:25:00,81.9,81.9,30.07,North,0,0.0,0.0,100,0.00,,,0.00,WUHU216WMR968SP,2014-07-23 16:25:00,
2014-07-23 12:27:00,81.7,81.7,30.07,North,0,0.0,0.0,100,0.00,,,0.00,WUHU216WMR968SP,2014-07-23 16:27:00,
2014-07-23 12:28:00,81.9,81.9,30.07,North,0,0.0,0.0,100,0.00,,,0.00,WUHU216WMR968SP,2014-07-23 16:28:00,
2014-07-23 12:30:00,81.9,81.9,30.07,North,0,0.0,0.0,100,0.00,,,0.00,WUHU216WMR968SP,2014-07-23 16:30:00,
2014-07-23 12:32:00,82.4,79.3,30.07,North,0,0.0,0.0,90,0.00,,,0.00,WUHU216WMR968SP,2014-07-23 16:32:00,
2014-07-23 12:33:00,82.8,82.8,30.07,North,0,0.0,0.0,100,0.00,,,0.00,WUHU216WMR968SP,2014-07-23 16:33:00,
2014-07-23 12:35:00,82.9,82.9,30.07,North,0,0.0,0.0,100,0.00,,,0.00,WUHU216WMR968SP,2014-07-23 16:35:00,
2014-07-23 12:36:00,82.9,82.2,30.07,North,0,0.0,0.0,98,0.00,,,0.00,WUHU216WMR968SP,2014-07-23 16:36:00,
2014-07-23 12:38:00,83.3,83.3,30.07,North,0,0.0,0.0,100,0.00,,,0.00,WUHU216WMR968SP,2014-07-23 16:38:00,
2014-07-23 12:41:00,84.0,84.0,30.07,North,0,0.0,0.0,100,0.00,,,0.00,WUHU216WMR968SP,2014-07-23 16:41:00,
2014-07-23 12:42:00,83.8,83.8,30.07,North,0,0.0,0.0,100,0.00,,,0.00,WUHU216WMR968SP,2014-07-23 16:42:00,
2014-07-23 12:43:00,83.8,83.8,30.07,North,0,0.0,0.0,100,0.00,,,0.00,WUHU216WMR968SP,2014-07-23 16:43:00,
2014-07-23 12:46:00,84.2,84.2,30.07,North,0,0.0,0.0,100,0.00,,,0.00,WUHU216WMR968SP,2014-07-23 16:46:00,
2014-07-23 12:47:00,84.4,84.4,30.07,North,0,0.0,0.0,100,0.00,,,0.00,WUHU216WMR968SP,2014-07-23 16:47:00,
2014-07-23 12:48:00,84.2,79.4,30.07,North,0,0.0,0.0,85,0.00,,,0.00,WUHU216WMR968SP,2014-07-23 16:48:00,
2014-07-23 12:49:00,84.2,79.4,30.07,North,0,0.0,0.0,85,0.00,,,0.00,WUHU216WMR968SP,2014-07-23 16:49:00,
2014-07-23 12:51:00,84.7,84.7,30.07,North,0,0.0,0.0,100,0.00,,,0.00,WUHU216WMR968SP,2014-07-23 16:51:00,
2014-07-23 12:52:00,84.6,81.5,30.07,North,0,0.0,0.0,90,0.00,,,0.00,WUHU216WMR968SP,2014-07-23 16:52:00,
2014-07-23 12:53:00,84.9,84.9,30.07,North,0,0.0,0.0,100,0.00,,,0.00,WUHU216WMR968SP,2014-07-23 16:53:00,
2014-07-23 12:54:00,84.7,84.7,30.07,North,0,0.0,0.0,100,0.00,,,0.00,WUHU216WMR968SP,2014-07-23 16:54:00,
2014-07-23 12:56:00,85.1,81.1,30.07,North,0,0.0,0.0,88,0.00,,,0.00,WUHU216WMR968SP,2014-07-23 16:56:00,
2014-07-23 12:57:00,85.1,81.1,30.07,North,0,0.0,0.0,88,0.00,,,0.00,WUHU216WMR968SP,2014-07-23 16:57:00,
2014-07-23 12:58:00,85.1,80.3,30.04,North,0,0.0,0.0,85,0.00,,,0.00,WUHU216WMR968SP,2014-07-23 16:58:00,
2014-07-23 12:59:00,85.1,80.3,30.04,North,0,0.0,0.0,85,0.00,,,0.00,WUHU216WMR968SP,2014-07-23 16:59:00,
2014-07-23 13:01:00,85.5,85.5,30.04,North,0,0.0,0.0,100,0.00,,,0.00,WUHU216WMR968SP,2014-07-23 17:01:00,
2014-07-23 13:02:00,85.5,85.5,30.04,North,0,0.0,0.0,100,0.00,,,0.00,WUHU216WMR968SP,2014-07-23 17:02:00,
2014-07-23 13:04:00,85.5,77.1,30.04,North,0,0.0,0.0,76,0.00,,,0.00,WUHU216WMR968SP,2014-07-23 17:04:00,
2014-07-23 13:06:00,85.6,79.9,30.04,North,0,0.0,0.0,83,0.00,,,0.00,WUHU216WMR968SP,2014-07-23 17:06:00,
2014-07-23 13:07:00,85.6,78.1,30.04,North,0,0.0,0.0,78,0.00,,,0.00,WUHU216WMR968SP,2014-07-23 17:07:00,
2014-07-23 13:09:00,86.0,85.3,30.04,North,0,0.0,0.0,98,0.00,,,0.00,WUHU216WMR968SP,2014-07-23 17:09:00,
2014-07-23 13:10:00,85.8,85.1,30.04,North,0,0.0,0.0,98,0.00,,,0.00,WUHU216WMR968SP,2014-07-23 17:10:00,
2014-07-23 13:12:00,85.8,83.5,30.04,North,0,0.0,0.0,93,0.00,,,0.00,WUHU216WMR968SP,2014-07-23 17:12:00,
2014-07-23 13:14:00,85.8,77.4,30.04,North,0,0.0,0.0,76,0.00,,,0.00,WUHU216WMR968SP,2014-07-23 17:14:00,
2014-07-23 13:15:00,85.8,77.4,30.04,North,0,0.0,0.0,76,0.00,,,0.00,WUHU216WMR968SP,2014-07-23 17:15:00,
2014-07-23 13:17:00,86.0,77.6,30.04,North,0,0.0,0.0,76,0.00,,,0.00,WUHU216WMR968SP,2014-07-23 17:17:00,
2014-07-23 13:20:00,86.2,81.8,30.04,North,0,0.0,0.0,87,0.00,,,0.00,WUHU216WMR968SP,2014-07-23 17:20:00,
2014-07-23 13:21:00,86.4,78.9,30.04,North,0,0.0,0.0,78,0.00,,,0.00,WUHU216WMR968SP,2014-07-23 17:21:00,
2014-07-23 13:22:00,86.2,80.0,30.04,North,0,0.0,0.0,81,0.00,,,0.00,WUHU216WMR968SP,2014-07-23 17:22:00,
2014-07-23 13:23:00,86.2,71.3,30.04,North,0,0.0,0.0,61,0.00,,,0.00,WUHU216WMR968SP,2014-07-23 17:23:00,
2014-07-23 13:25:00,86.4,77.0,30.04,North,0,0.0,0.0,73,0.00,,,0.00,WUHU216WMR968SP,2014-07-23 17:25:00,
2014-07-23 13:26:00,86.5,73.9,30.04,North,0,0.0,0.0,66,0.00,,,0.00,WUHU216WMR968SP,2014-07-23 17:26:00,
2014-07-23 13:27:00,86.5,71.6,30.04,North,0,0.0,0.0,61,0.00,,,0.00,WUHU216WMR968SP,2014-07-23 17:27:00,
2014-07-23 13:28:00,86.7,73.0,30.04,North,0,0.0,0.0,63,0.00,,,0.00,WUHU216WMR968SP,2014-07-23 17:28:00,
2014-07-23 13:30:00,86.9,70.7,30.04,North,0,0.0,0.0,58,0.00,,,0.00,WUHU216WMR968SP,2014-07-23 17:30:00,
2014-07-23 13:31:00,87.1,73.4,30.04,North,0,0.0,0.0,63,0.00,,,0.00,WUHU216WMR968SP,2014-07-23 17:31:00,
2014-07-23 13:32:00,87.1,73.4,30.04,North,0,0.0,0.0,63,0.00,,,0.00,WUHU216WMR968SP,2014-07-23 17:32:00,
2014-07-23 13:33:00,87.1,69.6,30.04,North,0,0.0,0.0,56,0.00,,,0.00,WUHU216WMR968SP,2014-07-23 17:33:00,
2014-07-23 13:35:00,87.4,69.9,30.04,North,0,0.0,0.0,56,0.00,,,0.00,WUHU216WMR968SP,2014-07-23 17:35:00,
2014-07-23 13:37:00,87.4,73.6,30.04,North,0,0.0,0.0,63,0.00,,,0.00,WUHU216WMR968SP,2014-07-23 17:37:00,
2014-07-23 13:38:00,87.6,73.8,30.04,North,0,0.0,0.0,63,0.00,,,0.00,WUHU216WMR968SP,2014-07-23 17:38:00,
2014-07-23 13:40:00,87.8,74.0,30.04,North,0,0.0,0.0,63,0.00,,,0.00,WUHU216WMR968SP,2014-07-23 17:40:00,
2014-07-23 13:41:00,87.6,70.1,30.04,North,0,0.0,0.0,56,0.00,,,0.00,WUHU216WMR968SP,2014-07-23 17:41:00,
2014-07-23 13:42:00,87.6,71.4,30.04,North,0,0.0,0.0,58,0.00,,,0.00,WUHU216WMR968SP,2014-07-23 17:42:00,
2014-07-23 13:43:00,87.4,69.9,30.04,North,0,0.0,0.0,56,0.00,,,0.00,WUHU216WMR968SP,2014-07-23 17:43:00,
2014-07-23 13:45:00,87.4,71.2,30.04,North,0,0.0,0.0,58,0.00,,,0.00,WUHU216WMR968SP,2014-07-23 17:45:00,
2014-07-23 13:46:00,87.4,72.5,30.04,North,0,0.0,0.0,61,0.00,,,0.00,WUHU216WMR968SP,2014-07-23 17:46:00,
2014-07-23 13:47:00,87.3,67.1,30.04,North,0,0.0,0.0,51,0.00,,,0.00,WUHU216WMR968SP,2014-07-23 17:47:00,
2014-07-23 13:49:00,87.3,65.6,30.04,North,0,0.0,0.0,48,0.00,,,0.00,WUHU216WMR968SP,2014-07-23 17:49:00,
2014-07-23 13:50:00,87.1,66.9,30.04,North,0,0.0,0.0,51,0.00,,,0.00,WUHU216WMR968SP,2014-07-23 17:50:00,
2014-07-23 13:51:00,87.1,66.9,30.04,North,0,0.0,0.0,51,0.00,,,0.00,WUHU216WMR968SP,2014-07-23 17:51:00,
2014-07-23 13:52:00,87.1,66.9,30.04,North,0,0.0,0.0,51,0.00,,,0.00,WUHU216WMR968SP,2014-07-23 17:52:00,
2014-07-23 13:53:00,87.1,66.9,30.04,North,0,0.0,0.0,51,0.00,,,0.00,WUHU216WMR968SP,2014-07-23 17:53:00,
2014-07-23 13:54:00,87.1,66.9,30.04,North,0,0.0,0.0,51,0.00,,,0.00,WUHU216WMR968SP,2014-07-23 17:54:00,
2014-07-23 13:56:00,87.1,65.4,30.04,North,0,0.0,0.0,48,0.00,,,0.00,WUHU216WMR968SP,2014-07-23 17:56:00,
2014-07-23 13:58:00,87.1,66.9,30.04,North,0,0.0,0.0,51,0.00,,,0.00,WUHU216WMR968SP,2014-07-23 17:58:00,
2014-07-23 13:59:00,87.1,66.9,30.04,North,0,0.0,0.0,51,0.00,,,0.00,WUHU216WMR968SP,2014-07-23 17:59:00,
2014-07-23 14:00:00,86.9,66.7,30.04,North,0,0.0,0.0,51,0.00,,,0.00,WUHU216WMR968SP,2014-07-23 18:00:00,
2014-07-23 14:01:00,87.1,66.9,30.04,North,0,0.0,0.0,51,0.00,,,0.00,WUHU216WMR968SP,2014-07-23 18:01:00,
2014-07-23 14:03:00,87.1,68.3,30.04,North,0,0.0,0.0,53,0.00,,,0.00,WUHU216WMR968SP,2014-07-23 18:03:00,
2014-07-23 14:04:00,87.3,67.1,30.04,North,0,0.0,0.0,51,0.00,,,0.00,WUHU216WMR968SP,2014-07-23 18:04:00,
2014-07-23 14:05:00,87.3,68.5,30.04,North,0,0.0,0.0,53,0.00,,,0.00,WUHU216WMR968SP,2014-07-23 18:05:00,
2014-07-23 14:06:00,87.4,68.6,30.04,North,0,0.0,0.0,53,0.00,,,0.00,WUHU216WMR968SP,2014-07-23 18:06:00,
2014-07-23 14:08:00,87.6,68.8,30.04,North,0,0.0,0.0,53,0.00,,,0.00,WUHU216WMR968SP,2014-07-23 18:08:00,
2014-07-23 14:09:00,87.6,68.8,30.04,North,0,0.0,0.0,53,0.00,,,0.00,WUHU216WMR968SP,2014-07-23 18:09:00,
2014-07-23 14:10:00,87.6,68.8,30.04,North,0,0.0,0.0,53,0.00,,,0.00,WUHU216WMR968SP,2014-07-23 18:10:00,
2014-07-23 14:11:00,87.6,67.3,30.04,North,0,0.0,0.0,51,0.00,,,0.00,WUHU216WMR968SP,2014-07-23 18:11:00,
2014-07-23 14:12:00,87.8,66.0,30.04,North,0,0.0,0.0,48,0.00,,,0.00,WUHU216WMR968SP,2014-07-23 18:12:00,
2014-07-23 14:13:00,87.8,66.0,30.04,North,0,0.0,0.0,48,0.00,,,0.00,WUHU216WMR968SP,2014-07-23 18:13:00,
2014-07-23 14:14:00,87.8,67.5,30.04,North,0,0.0,0.0,51,0.00,,,0.00,WUHU216WMR968SP,2014-07-23 18:14:00,
2014-07-23 14:15:00,87.6,67.3,30.04,North,0,0.0,0.0,51,0.00,,,0.00,WUHU216WMR968SP,2014-07-23 18:15:00,
2014-07-23 14:16:00,87.8,67.5,30.04,North,0,0.0,0.0,51,0.00,,,0.00,WUHU216WMR968SP,2014-07-23 18:16:00,
2014-07-23 14:17:00,87.8,66.0,30.04,North,0,0.0,0.0,48,0.00,,,0.00,WUHU216WMR968SP,2014-07-23 18:17:00,
2014-07-23 14:18:00,88.0,67.7,30.04,North,0,0.0,0.0,51,0.00,,,0.00,WUHU216WMR968SP,2014-07-23 18:18:00,
2014-07-23 14:20:00,88.2,66.4,30.04,North,0,0.0,0.0,48,0.00,,,0.00,WUHU216WMR968SP,2014-07-23 18:20:00,
2014-07-23 14:21:00,88.2,66.4,30.04,North,0,0.0,0.0,48,0.00,,,0.00,WUHU216WMR968SP,2014-07-23 18:21:00,
2014-07-23 14:22:00,88.2,66.4,30.04,North,0,0.0,0.0,48,0.00,,,0.00,WUHU216WMR968SP,2014-07-23 18:22:00,
2014-07-23 14:23:00,88.2,66.4,30.04,North,0,0.0,0.0,48,0.00,,,0.00,WUHU216WMR968SP,2014-07-23 18:23:00,
2014-07-23 14:25:00,88.2,66.4,30.04,North,0,0.0,0.0,48,0.00,,,0.00,WUHU216WMR968SP,2014-07-23 18:25:00,
2014-07-23 14:26:00,88.0,61.3,30.04,North,0,0.0,0.0,41,0.00,,,0.00,WUHU216WMR968SP,2014-07-23 18:26:00,
2014-07-23 14:27:00,88.0,61.3,30.04,North,0,0.0,0.0,41,0.00,,,0.00,WUHU216WMR968SP,2014-07-23 18:27:00,
2014-07-23 14:29:00,87.8,61.1,30.04,North,0,0.0,0.0,41,0.00,,,0.00,WUHU216WMR968SP,2014-07-23 18:29:00,
2014-07-23 14:30:00,87.8,61.1,30.04,North,0,0.0,0.0,41,0.00,,,0.00,WUHU216WMR968SP,2014-07-23 18:30:00,
2014-07-23 14:31:00,87.8,61.1,30.04,North,0,0.0,0.0,41,0.00,,,0.00,WUHU216WMR968SP,2014-07-23 18:31:00,
2014-07-23 14:32:00,87.8,61.1,30.04,North,0,0.0,0.0,41,0.00,,,0.00,WUHU216WMR968SP,2014-07-23 18:32:00,
2014-07-23 14:33:00,88.0,61.3,30.04,North,0,0.0,0.0,41,0.00,,,0.00,WUHU216WMR968SP,2014-07-23 18:33:00,
2014-07-23 14:34:00,88.2,61.5,30.04,North,0,0.0,0.0,41,0.00,,,0.00,WUHU216WMR968SP,2014-07-23 18:34:00,
2014-07-23 14:36:00,88.2,61.5,30.04,North,0,0.0,0.0,41,0.00,,,0.00,WUHU216WMR968SP,2014-07-23 18:36:00,
2014-07-23 14:37:00,88.2,61.5,30.04,North,0,0.0,0.0,41,0.00,,,0.00,WUHU216WMR968SP,2014-07-23 18:37:00,
2014-07-23 14:38:00,88.2,61.5,30.04,North,0,0.0,0.0,41,0.00,,,0.00,WUHU216WMR968SP,2014-07-23 18:38:00,
2014-07-23 14:40:00,88.0,66.2,30.04,North,0,0.0,0.0,48,0.00,,,0.00,WUHU216WMR968SP,2014-07-23 18:40:00,
2014-07-23 14:41:00,88.2,66.4,30.04,North,0,0.0,0.0,48,0.00,,,0.00,WUHU216WMR968SP,2014-07-23 18:41:00,
2014-07-23 14:42:00,88.2,66.4,30.04,North,0,0.0,0.0,48,0.00,,,0.00,WUHU216WMR968SP,2014-07-23 18:42:00,
2014-07-23 14:43:00,88.2,66.4,30.01,North,0,0.0,0.0,48,0.00,,,0.00,WUHU216WMR968SP,2014-07-23 18:43:00,
2014-07-23 14:45:00,88.0,66.2,30.01,North,0,0.0,0.0,48,0.00,,,0.00,WUHU216WMR968SP,2014-07-23 18:45:00,
2014-07-23 14:46:00,87.8,66.0,30.01,North,0,0.0,0.0,48,0.00,,,0.00,WUHU216WMR968SP,2014-07-23 18:46:00,
2014-07-23 14:47:00,87.8,66.0,30.01,North,0,0.0,0.0,48,0.00,,,0.00,WUHU216WMR968SP,2014-07-23 18:47:00,
2014-07-23 14:48:00,87.6,65.9,30.01,North,0,0.0,0.0,48,0.00,,,0.00,WUHU216WMR968SP,2014-07-23 18:48:00,
2014-07-23 14:50:00,87.6,65.9,30.01,North,0,0.0,0.0,48,0.00,,,0.00,WUHU216WMR968SP,2014-07-23 18:50:00,
2014-07-23 14:51:00,87.4,65.7,30.01,North,0,0.0,0.0,48,0.00,,,0.00,WUHU216WMR968SP,2014-07-23 18:51:00,
2014-07-23 14:52:00,87.4,65.7,30.01,North,0,0.0,0.0,48,0.00,,,0.00,WUHU216WMR968SP,2014-07-23 18:52:00,
2014-07-23 14:53:00,87.4,65.7,30.01,North,0,0.0,0.0,48,0.00,,,0.00,WUHU216WMR968SP,2014-07-23 18:53:00,
2014-07-23 14:56:00,87.1,65.4,30.01,North,0,0.0,0.0,48,0.00,,,0.00,WUHU216WMR968SP,2014-07-23 18:56:00,
2014-07-23 14:57:00,87.1,65.4,30.01,North,0,0.0,0.0,48,0.00,,,0.00,WUHU216WMR968SP,2014-07-23 18:57:00,
2014-07-23 14:58:00,87.1,65.4,30.01,North,0,0.0,0.0,48,0.00,,,0.00,WUHU216WMR968SP,2014-07-23 18:58:00,
2014-07-23 15:01:00,86.5,64.8,30.01,North,0,0.0,0.0,48,0.00,,,0.00,WUHU216WMR968SP,2014-07-23 19:01:00,
2014-07-23 15:03:00,86.4,64.7,30.01,North,0,0.0,0.0,48,0.00,,,0.00,WUHU216WMR968SP,2014-07-23 19:03:00,
2014-07-23 15:07:00,86.0,65.9,30.01,North,0,0.0,0.0,51,0.00,,,0.00,WUHU216WMR968SP,2014-07-23 19:07:00,
2014-07-23 15:08:00,86.0,65.9,30.01,North,0,0.0,0.0,51,0.00,,,0.00,WUHU216WMR968SP,2014-07-23 19:08:00,
2014-07-23 15:09:00,86.0,67.3,30.01,North,0,0.0,0.0,53,0.00,,,0.00,WUHU216WMR968SP,2014-07-23 19:09:00,
2014-07-23 15:13:00,85.8,65.7,30.01,North,0,0.0,0.0,51,0.00,,,0.00,WUHU216WMR968SP,2014-07-23 19:13:00,
2014-07-23 15:14:00,86.0,65.9,30.01,North,0,0.0,0.0,51,0.00,,,0.00,WUHU216WMR968SP,2014-07-23 19:14:00,
2014-07-23 15:18:00,86.4,72.7,30.01,North,0,0.0,0.0,63,0.00,,,0.00,WUHU216WMR968SP,2014-07-23 19:18:00,
2014-07-23 15:19:00,86.4,70.3,30.01,North,0,0.0,0.0,58,0.00,,,0.00,WUHU216WMR968SP,2014-07-23 19:19:00,
2014-07-23 15:23:00,86.2,66.0,30.01,North,0,0.0,0.0,51,0.00,,,0.00,WUHU216WMR968SP,2014-07-23 19:23:00,
2014-07-23 15:24:00,86.2,66.0,30.01,North,0,0.0,0.0,51,0.00,,,0.00,WUHU216WMR968SP,2014-07-23 19:24:00,
2014-07-23 15:25:00,86.2,66.0,30.01,North,0,0.0,0.0,51,0.00,,,0.00,WUHU216WMR968SP,2014-07-23 19:25:00,
2014-07-23 15:29:00,86.2,67.4,30.01,North,0,0.0,0.0,53,0.00,,,0.00,WUHU216WMR968SP,2014-07-23 19:29:00,
2014-07-23 15:30:00,86.2,66.0,30.01,North,0,0.0,0.0,51,0.00,,,0.00,WUHU216WMR968SP,2014-07-23 19:30:00,
2014-07-23 15:34:00,86.2,67.4,30.01,North,0,0.0,0.0,53,0.00,,,0.00,WUHU216WMR968SP,2014-07-23 19:34:00,
2014-07-23 15:35:00,86.4,67.6,30.01,North,0,0.0,0.0,53,0.00,,,0.00,WUHU216WMR968SP,2014-07-23 19:35:00,
2014-07-23 15:39:00,86.4,66.2,30.01,North,0,0.0,0.0,51,0.00,,,0.00,WUHU216WMR968SP,2014-07-23 19:39:00,
2014-07-23 15:40:00,86.4,66.2,30.01,North,0,0.0,0.0,51,0.00,,,0.00,WUHU216WMR968SP,2014-07-23 19:40:00,
2014-07-23 15:41:00,86.2,66.0,30.01,North,0,0.0,0.0,51,0.00,,,0.00,WUHU216WMR968SP,2014-07-23 19:41:00,
2014-07-23 15:42:00,86.2,66.0,30.01,North,0,0.0,0.0,51,0.00,,,0.00,WUHU216WMR968SP,2014-07-23 19:42:00,
2014-07-23 15:44:00,86.4,66.2,29.98,North,0,0.0,0.0,51,0.00,,,0.00,WUHU216WMR968SP,2014-07-23 19:44:00,
2014-07-23 15:45:00,86.4,66.2,29.98,North,0,0.0,0.0,51,0.00,,,0.00,WUHU216WMR968SP,2014-07-23 19:45:00,
2014-07-23 15:46:00,86.5,66.3,29.98,North,0,0.0,0.0,51,0.00,,,0.00,WUHU216WMR968SP,2014-07-23 19:46:00,
2014-07-23 15:47:00,86.5,66.3,29.98,North,0,0.0,0.0,51,0.00,,,0.00,WUHU216WMR968SP,2014-07-23 19:47:00,
2014-07-23 15:49:00,86.4,66.2,29.98,North,0,0.0,0.0,51,0.00,,,0.00,WUHU216WMR968SP,2014-07-23 19:49:00,
2014-07-23 15:50:00,86.4,66.2,29.98,North,0,0.0,0.0,51,0.00,,,0.00,WUHU216WMR968SP,2014-07-23 19:50:00,
2014-07-23 15:51:00,86.4,66.2,29.98,North,0,0.0,0.0,51,0.00,,,0.00,WUHU216WMR968SP,2014-07-23 19:51:00,
2014-07-23 15:53:00,86.4,64.7,29.98,North,0,0.0,0.0,48,0.00,,,0.00,WUHU216WMR968SP,2014-07-23 19:53:00,
2014-07-23 15:55:00,86.5,66.3,29.98,North,0,0.0,0.0,51,0.00,,,0.00,WUHU216WMR968SP,2014-07-23 19:55:00,
2014-07-23 15:57:00,86.5,64.8,29.98,North,0,0.0,0.0,48,0.00,,,0.00,WUHU216WMR968SP,2014-07-23 19:57:00,
2014-07-23 15:58:00,86.5,64.8,29.98,North,0,0.0,0.0,48,0.00,,,0.00,WUHU216WMR968SP,2014-07-23 19:58:00,
2014-07-23 16:00:00,86.5,64.8,29.98,North,0,0.0,0.0,48,0.00,,,0.00,WUHU216WMR968SP,2014-07-23 20:00:00,
2014-07-23 16:02:00,86.5,64.8,29.98,North,0,0.0,0.0,48,0.00,,,0.00,WUHU216WMR968SP,2014-07-23 20:02:00,
2014-07-23 16:03:00,86.4,66.2,29.98,North,0,0.0,0.0,51,0.00,,,0.00,WUHU216WMR968SP,2014-07-23 20:03:00,
2014-07-23 16:04:00,86.4,66.2,29.98,North,0,0.0,0.0,51,0.00,,,0.00,WUHU216WMR968SP,2014-07-23 20:04:00,
2014-07-23 16:05:00,86.4,66.2,29.98,North,0,0.0,0.0,51,0.00,,,0.00,WUHU216WMR968SP,2014-07-23 20:05:00,
2014-07-23 16:07:00,86.2,66.0,29.98,North,0,0.0,0.0,51,0.00,,,0.00,WUHU216WMR968SP,2014-07-23 20:07:00,
2014-07-23 16:08:00,86.0,65.9,29.98,North,0,0.0,0.0,51,0.00,,,0.00,WUHU216WMR968SP,2014-07-23 20:08:00,
2014-07-23 16:09:00,85.8,67.1,29.98,North,0,0.0,0.0,53,0.00,,,0.00,WUHU216WMR968SP,2014-07-23 20:09:00,
2014-07-23 16:10:00,85.8,67.1,29.98,North,0,0.0,0.0,53,0.00,,,0.00,WUHU216WMR968SP,2014-07-23 20:10:00,
2014-07-23 16:11:00,85.6,66.9,29.98,North,0,0.0,0.0,53,0.00,,,0.00,WUHU216WMR968SP,2014-07-23 20:11:00,
2014-07-23 16:12:00,85.6,66.9,29.98,North,0,0.0,0.0,53,0.00,,,0.00,WUHU216WMR968SP,2014-07-23 20:12:00,
2014-07-23 16:14:00,85.5,66.8,29.98,North,0,0.0,0.0,53,0.00,,,0.00,WUHU216WMR968SP,2014-07-23 20:14:00,
2014-07-23 16:15:00,85.5,66.8,29.98,North,0,0.0,0.0,53,0.00,,,0.00,WUHU216WMR968SP,2014-07-23 20:15:00,
2014-07-23 16:16:00,85.5,69.4,29.98,North,0,0.0,0.0,58,0.00,,,0.00,WUHU216WMR968SP,2014-07-23 20:16:00,
2014-07-23 16:17:00,85.3,68.0,29.98,North,0,0.0,0.0,56,0.00,,,0.00,WUHU216WMR968SP,2014-07-23 20:17:00,
2014-07-23 16:20:00,85.3,68.0,29.98,North,0,0.0,0.0,56,0.00,,,0.00,WUHU216WMR968SP,2014-07-23 20:20:00,
2014-07-23 16:21:00,85.3,66.6,29.98,North,0,0.0,0.0,53,0.00,,,0.00,WUHU216WMR968SP,2014-07-23 20:21:00,
2014-07-23 16:22:00,85.3,65.2,29.98,North,0,0.0,0.0,51,0.00,,,0.00,WUHU216WMR968SP,2014-07-23 20:22:00,
2014-07-23 16:25:00,85.6,66.9,29.98,North,0,0.0,0.0,53,0.00,,,0.00,WUHU216WMR968SP,2014-07-23 20:25:00,
2014-07-23 16:26:00,85.6,66.9,29.98,North,0,0.0,0.0,53,0.00,,,0.00,WUHU216WMR968SP,2014-07-23 20:26:00,
2014-07-23 16:27:00,85.6,66.9,29.98,North,0,0.0,0.0,53,0.00,,,0.00,WUHU216WMR968SP,2014-07-23 20:27:00,
2014-07-23 16:28:00,85.6,68.2,29.98,North,0,0.0,0.0,56,0.00,,,0.00,WUHU216WMR968SP,2014-07-23 20:28:00,
2014-07-23 16:30:00,85.6,68.2,29.98,North,0,0.0,0.0,56,0.00,,,0.00,WUHU216WMR968SP,2014-07-23 20:30:00,
2014-07-23 16:31:00,85.6,68.2,29.98,North,0,0.0,0.0,56,0.00,,,0.00,WUHU216WMR968SP,2014-07-23 20:31:00,
2014-07-23 16:32:00,85.6,70.8,29.98,North,0,0.0,0.0,61,0.00,,,0.00,WUHU216WMR968SP,2014-07-23 20:32:00,
2014-07-23 16:33:00,85.6,69.5,29.98,North,0,0.0,0.0,58,0.00,,,0.00,WUHU216WMR968SP,2014-07-23 20:33:00,
2014-07-23 16:35:00,85.6,70.8,29.98,North,0,0.0,0.0,61,0.00,,,0.00,WUHU216WMR968SP,2014-07-23 20:35:00,
2014-07-23 16:36:00,85.6,70.8,29.98,North,0,0.0,0.0,61,0.00,,,0.00,WUHU216WMR968SP,2014-07-23 20:36:00,
2014-07-23 16:37:00,85.6,70.8,29.98,North,0,0.0,0.0,61,0.00,,,0.00,WUHU216WMR968SP,2014-07-23 20:37:00,
2014-07-23 16:38:00,85.6,69.5,29.98,North,0,0.0,0.0,58,0.00,,,0.00,WUHU216WMR968SP,2014-07-23 20:38:00,
2014-07-23 16:41:00,85.6,70.8,29.98,North,0,0.0,0.0,61,0.00,,,0.00,WUHU216WMR968SP,2014-07-23 20:41:00,
2014-07-23 16:42:00,85.6,70.8,29.98,North,0,0.0,0.0,61,0.00,,,0.00,WUHU216WMR968SP,2014-07-23 20:42:00,
2014-07-23 16:44:00,85.5,70.7,29.98,North,0,0.0,0.0,61,0.00,,,0.00,WUHU216WMR968SP,2014-07-23 20:44:00,
2014-07-23 16:46:00,85.3,70.5,29.98,North,0,0.0,0.0,61,0.00,,,0.00,WUHU216WMR968SP,2014-07-23 20:46:00,
2014-07-23 16:47:00,85.3,68.0,29.98,North,0,0.0,0.0,56,0.00,,,0.00,WUHU216WMR968SP,2014-07-23 20:47:00,
2014-07-23 16:49:00,85.3,69.2,29.98,North,0,0.0,0.0,58,0.00,,,0.00,WUHU216WMR968SP,2014-07-23 20:49:00,
2014-07-23 16:51:00,85.6,66.9,29.98,North,0,0.0,0.0,53,0.00,,,0.00,WUHU216WMR968SP,2014-07-23 20:51:00,
2014-07-23 16:52:00,85.6,66.9,29.98,North,0,0.0,0.0,53,0.00,,,0.00,WUHU216WMR968SP,2014-07-23 20:52:00,
2014-07-23 16:54:00,85.8,68.4,29.98,North,0,0.0,0.0,56,0.00,,,0.00,WUHU216WMR968SP,2014-07-23 20:54:00,
2014-07-23 16:56:00,85.8,67.1,29.98,North,0,0.0,0.0,53,0.00,,,0.00,WUHU216WMR968SP,2014-07-23 20:56:00,
2014-07-23 16:57:00,85.8,67.1,29.98,North,0,0.0,0.0,53,0.00,,,0.00,WUHU216WMR968SP,2014-07-23 20:57:00,
2014-07-23 16:58:00,85.8,67.1,29.98,North,0,0.0,0.0,53,0.00,,,0.00,WUHU216WMR968SP,2014-07-23 20:58:00,
2014-07-23 16:59:00,86.0,65.9,29.98,North,0,0.0,0.0,51,0.00,,,0.00,WUHU216WMR968SP,2014-07-23 20:59:00,
2014-07-23 17:01:00,86.0,65.9,29.98,North,0,0.0,0.0,51,0.00,,,0.00,WUHU216WMR968SP,2014-07-23 21:01:00,
2014-07-23 17:02:00,86.0,65.9,29.98,North,0,0.0,0.0,51,0.00,,,0.00,WUHU216WMR968SP,2014-07-23 21:02:00,
2014-07-23 17:03:00,86.2,66.0,29.98,North,0,0.0,0.0,51,0.00,,,0.00,WUHU216WMR968SP,2014-07-23 21:03:00,
2014-07-23 17:05:00,86.4,67.6,29.98,North,0,0.0,0.0,53,0.00,,,0.00,WUHU216WMR968SP,2014-07-23 21:05:00,
2014-07-23 17:06:00,86.4,66.2,29.98,North,0,0.0,0.0,51,0.00,,,0.00,WUHU216WMR968SP,2014-07-23 21:06:00,
2014-07-23 17:07:00,86.4,66.2,29.98,North,0,0.0,0.0,51,0.00,,,0.00,WUHU216WMR968SP,2014-07-23 21:07:00,
2014-07-23 17:08:00,86.4,66.2,29.98,North,0,0.0,0.0,51,0.00,,,0.00,WUHU216WMR968SP,2014-07-23 21:08:00,
2014-07-23 17:10:00,86.4,66.2,29.98,North,0,0.0,0.0,51,0.00,,,0.00,WUHU216WMR968SP,2014-07-23 21:10:00,
2014-07-23 17:11:00,86.2,66.0,29.98,North,0,0.0,0.0,51,0.00,,,0.00,WUHU216WMR968SP,2014-07-23 21:11:00,
2014-07-23 17:12:00,86.2,66.0,29.98,North,0,0.0,0.0,51,0.00,,,0.00,WUHU216WMR968SP,2014-07-23 21:12:00,
2014-07-23 17:13:00,86.2,66.0,29.95,North,0,0.0,0.0,51,0.00,,,0.00,WUHU216WMR968SP,2014-07-23 21:13:00,
2014-07-23 17:15:00,86.0,65.9,29.95,North,0,0.0,0.0,51,0.00,,,0.00,WUHU216WMR968SP,2014-07-23 21:15:00,
2014-07-23 17:17:00,86.2,67.4,29.95,North,0,0.0,0.0,53,0.00,,,0.00,WUHU216WMR968SP,2014-07-23 21:17:00,
2014-07-23 17:18:00,86.2,67.4,29.95,North,0,0.0,0.0,53,0.00,,,0.00,WUHU216WMR968SP,2014-07-23 21:18:00,
2014-07-23 17:19:00,86.2,67.4,29.95,North,0,0.0,0.0,53,0.00,,,0.00,WUHU216WMR968SP,2014-07-23 21:19:00,
2014-07-23 17:20:00,86.2,67.4,29.95,North,0,0.0,0.0,53,0.00,,,0.00,WUHU216WMR968SP,2014-07-23 21:20:00,
2014-07-23 17:22:00,86.4,67.6,29.95,North,0,0.0,0.0,53,0.00,,,0.00,WUHU216WMR968SP,2014-07-23 21:22:00,
2014-07-23 17:23:00,86.4,67.6,29.95,North,0,0.0,0.0,53,0.00,,,0.00,WUHU216WMR968SP,2014-07-23 21:23:00,
2014-07-23 17:24:00,86.4,67.6,29.95,North,0,0.0,0.0,53,0.00,,,0.00,WUHU216WMR968SP,2014-07-23 21:24:00,
2014-07-23 17:25:00,86.5,66.3,29.95,North,0,0.0,0.0,51,0.00,,,0.00,WUHU216WMR968SP,2014-07-23 21:25:00,
2014-07-23 17:27:00,86.7,66.5,29.95,North,0,0.0,0.0,51,0.00,,,0.00,WUHU216WMR968SP,2014-07-23 21:27:00,
2014-07-23 17:28:00,86.7,66.5,29.95,North,0,0.0,0.0,51,0.00,,,0.00,WUHU216WMR968SP,2014-07-23 21:28:00,
2014-07-23 17:29:00,86.9,66.7,29.95,North,0,0.0,0.0,51,0.00,,,0.00,WUHU216WMR968SP,2014-07-23 21:29:00,
2014-07-23 17:31:00,87.1,66.9,29.95,North,0,0.0,0.0,51,0.00,,,0.00,WUHU216WMR968SP,2014-07-23 21:31:00,
2014-07-23 17:33:00,87.3,65.6,29.95,North,0,0.0,0.0,48,0.00,,,0.00,WUHU216WMR968SP,2014-07-23 21:33:00,
2014-07-23 17:34:00,87.4,67.1,29.95,North,0,0.0,0.0,51,0.00,,,0.00,WUHU216WMR968SP,2014-07-23 21:34:00,
2014-07-23 17:36:00,87.4,65.7,29.95,North,0,0.0,0.0,48,0.00,,,0.00,WUHU216WMR968SP,2014-07-23 21:36:00,
2014-07-23 17:38:00,87.3,65.6,29.95,North,0,0.0,0.0,48,0.00,,,0.00,WUHU216WMR968SP,2014-07-23 21:38:00,
2014-07-23 17:39:00,87.1,65.4,29.95,North,0,0.0,0.0,48,0.00,,,0.00,WUHU216WMR968SP,2014-07-23 21:39:00,
2014-07-23 17:40:00,87.1,65.4,29.95,North,0,0.0,0.0,48,0.00,,,0.00,WUHU216WMR968SP,2014-07-23 21:40:00,
2014-07-23 17:41:00,86.9,66.7,29.95,North,0,0.0,0.0,51,0.00,,,0.00,WUHU216WMR968SP,2014-07-23 21:41:00,
2014-07-23 17:43:00,86.5,66.3,29.95,North,0,0.0,0.0,51,0.00,,,0.00,WUHU216WMR968SP,2014-07-23 21:43:00,
2014-07-23 17:44:00,86.5,66.3,29.95,North,0,0.0,0.0,51,0.00,,,0.00,WUHU216WMR968SP,2014-07-23 21:44:00,
2014-07-23 17:45:00,86.4,66.2,29.95,North,0,0.0,0.0,51,0.00,,,0.00,WUHU216WMR968SP,2014-07-23 21:45:00,
2014-07-23 17:47:00,86.0,65.9,29.95,North,0,0.0,0.0,51,0.00,,,0.00,WUHU216WMR968SP,2014-07-23 21:47:00,
2014-07-23 17:48:00,86.0,65.9,29.95,North,0,0.0,0.0,51,0.00,,,0.00,WUHU216WMR968SP,2014-07-23 21:48:00,
2014-07-23 17:49:00,85.8,65.7,29.95,North,0,0.0,0.0,51,0.00,,,0.00,WUHU216WMR968SP,2014-07-23 21:49:00,
2014-07-23 17:50:00,85.8,65.7,29.95,North,0,0.0,0.0,51,0.00,,,0.00,WUHU216WMR968SP,2014-07-23 21:50:00,
2014-07-23 17:51:00,85.6,65.5,29.95,North,0,0.0,0.0,51,0.00,,,0.00,WUHU216WMR968SP,2014-07-23 21:51:00,
2014-07-23 17:52:00,85.6,65.5,29.95,North,0,0.0,0.0,51,0.00,,,0.00,WUHU216WMR968SP,2014-07-23 21:52:00,
2014-07-23 17:53:00,85.5,66.8,29.95,North,0,0.0,0.0,53,0.00,,,0.00,WUHU216WMR968SP,2014-07-23 21:53:00,
2014-07-23 17:54:00,85.3,66.6,29.95,North,0,0.0,0.0,53,0.00,,,0.00,WUHU216WMR968SP,2014-07-23 21:54:00,
2014-07-23 17:55:00,85.3,66.6,29.95,North,0,0.0,0.0,53,0.00,,,0.00,WUHU216WMR968SP,2014-07-23 21:55:00,
2014-07-23 17:57:00,85.1,66.4,29.95,North,0,0.0,0.0,53,0.00,,,0.00,WUHU216WMR968SP,2014-07-23 21:57:00,
2014-07-23 17:58:00,84.9,66.2,29.95,North,0,0.0,0.0,53,0.00,,,0.00,WUHU216WMR968SP,2014-07-23 21:58:00,